Observation data for New Home on 09/20/2020      Previous  Date  Next       Current Mesonet Observations  Soil Data  Daily Summary Page  Observations in Plain Language
KNH1 200500Z 13004KT 15/11 A3022 RMK A01 T01470113  RH  080%=      5-min Rain = 0
KNH1 200501Z 14004KT 15/11 A3022 RMK A01 T01470113  RH  080%=      5-min Rain = 0
KNH1 200502Z 13003KT 15/11 A3022 RMK A01 T01460113  RH  080%=      5-min Rain = 0
KNH1 200503Z 14003KT 15/11 A3022 RMK A01 T01460113  RH  081%=      5-min Rain = 0
KNH1 200504Z 14004KT 15/11 A3022 RMK A01 T01460112  RH  080%=      5-min Rain = 0
KNH1 200505Z 13003KT 15/11 A3022 RMK A01 T01450112  RH  081%=      5-min Rain = 0
KNH1 200506Z 14003KT 15/11 A3022 RMK A01 T01450112  RH  081%=      5-min Rain = 0
KNH1 200507Z 14003KT 15/11 A3022 RMK A01 T01450113  RH  081%=      5-min Rain = 0
KNH1 200508Z 13003KT 15/11 A3022 RMK A01 T01450113  RH  082%=      5-min Rain = 0
KNH1 200509Z 14003KT 14/11 A3022 RMK A01 T01440113  RH  081%=      5-min Rain = 0
KNH1 200510Z 13003KT 14/11 A3022 RMK A01 T01440113  RH  082%=      5-min Rain = 0
KNH1 200511Z 14003KT 14/11 A3022 RMK A01 T01440114  RH  082%=      5-min Rain = 0
KNH1 200512Z 14003KT 14/11 A3022 RMK A01 T01440113  RH  082%=      5-min Rain = 0
KNH1 200513Z 14003KT 14/11 A3023 RMK A01 T01440114  RH  082%=      5-min Rain = 0
KNH1 200514Z 14003KT 14/11 A3023 RMK A01 T01440114  RH  082%=      5-min Rain = 0
KNH1 200515Z 14003KT 14/11 A3023 RMK A01 T01440114  RH  082%=      5-min Rain = 0
KNH1 200516Z 15003KT 14/11 A3023 RMK A01 T01440114  RH  082%=      5-min Rain = 0
KNH1 200517Z 15003KT 14/11 A3023 RMK A01 T01440114  RH  082%=      5-min Rain = 0
KNH1 200518Z 14003KT 15/11 A3023 RMK A01 T01450114  RH  082%=      5-min Rain = 0
KNH1 200519Z 14003KT 15/11 A3022 RMK A01 T01450114  RH  082%=      5-min Rain = 0
KNH1 200520Z 15004KT 15/11 A3022 RMK A01 T01450113  RH  082%=      5-min Rain = 0
KNH1 200521Z 15004KT 15/11 A3022 RMK A01 T01450114  RH  082%=      5-min Rain = 0
KNH1 200522Z 15004KT 15/11 A3022 RMK A01 T01450114  RH  082%=      5-min Rain = 0
KNH1 200523Z 15004KT 15/11 A3022 RMK A01 T01450114  RH  081%=      5-min Rain = 0
KNH1 200524Z 14004KT 15/12 A3022 RMK A01 T01460115  RH  081%=      5-min Rain = 0
KNH1 200525Z 14004KT 15/11 A3022 RMK A01 T01470114  RH  081%=      5-min Rain = 0
KNH1 200526Z 15004KT 15/11 A3022 RMK A01 T01470114  RH  081%=      5-min Rain = 0
KNH1 200527Z 15004KT 15/11 A3022 RMK A01 T01470114  RH  081%=      5-min Rain = 0
KNH1 200528Z 15004KT 15/11 A3022 RMK A01 T01470114  RH  081%=      5-min Rain = 0
KNH1 200529Z 15004KT 15/11 A3022 RMK A01 T01470114  RH  081%=      5-min Rain = 0
KNH1 200530Z 15004KT 15/11 A3022 RMK A01 T01470114  RH  081%=      5-min Rain = 0
KNH1 200531Z 15003KT 15/11 A3022 RMK A01 T01470114  RH  081%=      5-min Rain = 0
KNH1 200532Z 15003KT 15/11 A3022 RMK A01 T01470114  RH  080%=      5-min Rain = 0
KNH1 200533Z 15004KT 15/11 A3022 RMK A01 T01470113  RH  080%=      5-min Rain = 0
KNH1 200534Z 15004KT 15/11 A3022 RMK A01 T01470114  RH  081%=      5-min Rain = 0
KNH1 200535Z 16004KT 15/11 A3022 RMK A01 T01470114  RH  081%=      5-min Rain = 0
KNH1 200536Z 15004KT 15/12 A3022 RMK A01 T01470115  RH  081%=      5-min Rain = 0
KNH1 200537Z 15004KT 15/11 A3022 RMK A01 T01470114  RH  080%=      5-min Rain = 0
KNH1 200538Z 15003KT 15/11 A3022 RMK A01 T01470114  RH  080%=      5-min Rain = 0
KNH1 200539Z 15003KT 15/11 A3022 RMK A01 T01460114  RH  081%=      5-min Rain = 0
KNH1 200540Z 15003KT 15/11 A3022 RMK A01 T01460113  RH  081%=      5-min Rain = 0
KNH1 200541Z 15004KT 15/11 A3022 RMK A01 T01450112  RH  081%=      5-min Rain = 0
KNH1 200542Z 15003KT 15/11 A3022 RMK A01 T01450112  RH  081%=      5-min Rain = 0
KNH1 200543Z 15003KT 15/11 A3022 RMK A01 T01450113  RH  081%=      5-min Rain = 0
KNH1 200544Z 15004KT 14/11 A3022 RMK A01 T01440114  RH  082%=      5-min Rain = 0
KNH1 200545Z 14004KT 14/11 A3022 RMK A01 T01440114  RH  082%=      5-min Rain = 0
KNH1 200546Z 15004KT 14/11 A3022 RMK A01 T01440113  RH  082%=      5-min Rain = 0
KNH1 200547Z 15004KT 15/11 A3022 RMK A01 T01450114  RH  082%=      5-min Rain = 0
KNH1 200548Z 15004KT 14/11 A3022 RMK A01 T01440113  RH  082%=      5-min Rain = 0
KNH1 200549Z 15004KT 14/11 A3022 RMK A01 T01440113  RH  081%=      5-min Rain = 0
KNH1 200550Z 15004KT 14/11 A3022 RMK A01 T01440113  RH  081%=      5-min Rain = 0
KNH1 200551Z 15003KT 14/11 A3022 RMK A01 T01440113  RH  081%=      5-min Rain = 0
KNH1 200552Z 15003KT 14/11 A3022 RMK A01 T01440112  RH  081%=      5-min Rain = 0
KNH1 200553Z 15003KT 14/11 A3022 RMK A01 T01440113  RH  081%=      5-min Rain = 0
KNH1 200554Z 15004KT 14/11 A3022 RMK A01 T01440112  RH  081%=      5-min Rain = 0
KNH1 200555Z 15003KT 14/11 A3022 RMK A01 T01430112  RH  081%=      5-min Rain = 0
KNH1 200556Z 15004KT 14/11 A3022 RMK A01 T01430112  RH  082%=      5-min Rain = 0
KNH1 200557Z 15004KT 14/11 A3022 RMK A01 T01430113  RH  082%=      5-min Rain = 0
KNH1 200558Z 14004KT 14/11 A3022 RMK A01 T01430113  RH  082%=      5-min Rain = 0
KNH1 200559Z 15004KT 14/11 A3022 RMK A01 T01430113  RH  082%=      5-min Rain = 0
KNH1 200600Z 15004KT 14/11 A3022 RMK A01 T01430113  RH  082%=      5-min Rain = 0
KNH1 200601Z 15004KT 14/11 A3022 RMK A01 T01430113  RH  082%=      5-min Rain = 0
KNH1 200602Z 15004KT 14/11 A3022 RMK A01 T01430113  RH  082%=      5-min Rain = 0
KNH1 200603Z 15004KT 14/11 A3022 RMK A01 T01430113  RH  082%=      5-min Rain = 0
KNH1 200604Z 15004KT 14/11 A3022 RMK A01 T01430113  RH  082%=      5-min Rain = 0
KNH1 200605Z 15004KT 14/11 A3022 RMK A01 T01430113  RH  082%=      5-min Rain = 0
KNH1 200606Z 15004KT 14/11 A3022 RMK A01 T01430114  RH  082%=      5-min Rain = 0
KNH1 200607Z 15004KT 14/11 A3022 RMK A01 T01440114  RH  082%=      5-min Rain = 0
KNH1 200608Z 15004KT 15/11 A3022 RMK A01 T01450114  RH  082%=      5-min Rain = 0
KNH1 200609Z 14004KT 15/11 A3022 RMK A01 T01450114  RH  081%=      5-min Rain = 0
KNH1 200610Z 14004KT 15/11 A3022 RMK A01 T01450114  RH  081%=      5-min Rain = 0
KNH1 200611Z 15004KT 15/11 A3022 RMK A01 T01460113  RH  081%=      5-min Rain = 0
KNH1 200612Z 15004KT 15/11 A3022 RMK A01 T01460113  RH  081%=      5-min Rain = 0
KNH1 200613Z 14004KT 15/11 A3022 RMK A01 T01460113  RH  081%=      5-min Rain = 0
KNH1 200614Z 14004KT 15/11 A3022 RMK A01 T01460113  RH  081%=      5-min Rain = 0
KNH1 200615Z 15004KT 15/11 A3022 RMK A01 T01450112  RH  080%=      5-min Rain = 0
KNH1 200616Z 14005KT 14/11 A3022 RMK A01 T01440111  RH  081%=      5-min Rain = 0
KNH1 200617Z 14004KT 14/11 A3022 RMK A01 T01440112  RH  081%=      5-min Rain = 0
KNH1 200618Z 14004KT 14/11 A3022 RMK A01 T01440112  RH  081%=      5-min Rain = 0
KNH1 200619Z 14004KT 14/11 A3022 RMK A01 T01430112  RH  081%=      5-min Rain = 0
KNH1 200620Z 14004KT 14/11 A3022 RMK A01 T01430112  RH  081%=      5-min Rain = 0
KNH1 200621Z 13003KT 14/11 A3022 RMK A01 T01420111  RH  082%=      5-min Rain = 0
KNH1 200622Z 13004KT 14/11 A3022 RMK A01 T01410112  RH  082%=      5-min Rain = 0
KNH1 200623Z 13004KT 14/11 A3022 RMK A01 T01410112  RH  083%=      5-min Rain = 0
KNH1 200624Z 14004KT 14/11 A3022 RMK A01 T01400112  RH  083%=      5-min Rain = 0
KNH1 200625Z 14004KT 14/11 A3022 RMK A01 T01400112  RH  083%=      5-min Rain = 0
KNH1 200626Z 14004KT 14/11 A3022 RMK A01 T01400112  RH  083%=      5-min Rain = 0
KNH1 200627Z 14004KT 14/11 A3022 RMK A01 T01390111  RH  083%=      5-min Rain = 0
KNH1 200628Z 14003KT 14/11 A3022 RMK A01 T01390111  RH  083%=      5-min Rain = 0
KNH1 200629Z 14004KT 14/11 A3022 RMK A01 T01390112  RH  084%=      5-min Rain = 0
KNH1 200630Z 14004KT 14/11 A3021 RMK A01 T01380111  RH  084%=      5-min Rain = 0
KNH1 200631Z 14005KT 14/11 A3021 RMK A01 T01380111  RH  084%=      5-min Rain = 0
KNH1 200632Z 14004KT 14/11 A3021 RMK A01 T01380111  RH  084%=      5-min Rain = 0
KNH1 200633Z 15004KT 14/11 A3021 RMK A01 T01380111  RH  084%=      5-min Rain = 0
KNH1 200634Z 15005KT 14/11 A3021 RMK A01 T01370111  RH  084%=      5-min Rain = 0
KNH1 200635Z 14004KT 14/11 A3021 RMK A01 T01370112  RH  085%=      5-min Rain = 0
KNH1 200636Z 14004KT 14/11 A3021 RMK A01 T01380112  RH  084%=      5-min Rain = 0
KNH1 200637Z 15004KT 14/11 A3021 RMK A01 T01370112  RH  084%=      5-min Rain = 0
KNH1 200638Z 14004KT 14/11 A3021 RMK A01 T01370112  RH  085%=      5-min Rain = 0
KNH1 200639Z 15004KT 14/11 A3021 RMK A01 T01380112  RH  084%=      5-min Rain = 0
KNH1 200640Z 14005KT 14/11 A3021 RMK A01 T01380112  RH  084%=      5-min Rain = 0
KNH1 200641Z 15005KT 14/11 A3021 RMK A01 T01380112  RH  084%=      5-min Rain = 0
KNH1 200642Z 15005KT 14/11 A3021 RMK A01 T01380111  RH  084%=      5-min Rain = 0
KNH1 200643Z 15005KT 14/11 A3021 RMK A01 T01370112  RH  084%=      5-min Rain = 0
KNH1 200644Z 15005KT 14/11 A3021 RMK A01 T01370112  RH  085%=      5-min Rain = 0
KNH1 200645Z 15005KT 14/11 A3021 RMK A01 T01380113  RH  085%=      5-min Rain = 0
KNH1 200646Z 15005KT 14/11 A3021 RMK A01 T01390114  RH  085%=      5-min Rain = 0
KNH1 200647Z 15005KT 14/11 A3021 RMK A01 T01400114  RH  084%=      5-min Rain = 0
KNH1 200648Z 15004KT 14/11 A3021 RMK A01 T01400114  RH  084%=      5-min Rain = 0
KNH1 200649Z 15005KT 14/11 A3021 RMK A01 T01410114  RH  084%=      5-min Rain = 0
KNH1 200650Z 15004KT 14/12 A3021 RMK A01 T01410115  RH  084%=      5-min Rain = 0
KNH1 200651Z 14005KT 14/12 A3021 RMK A01 T01420115  RH  084%=      5-min Rain = 0
KNH1 200652Z 14005KT 14/11 A3021 RMK A01 T01420114  RH  083%=      5-min Rain = 0
KNH1 200653Z 16004KT 14/11 A3021 RMK A01 T01420114  RH  083%=      5-min Rain = 0
KNH1 200654Z 15005KT 14/11 A3021 RMK A01 T01430114  RH  083%=      5-min Rain = 0
KNH1 200655Z 15005KT 14/12 A3021 RMK A01 T01430115  RH  083%=      5-min Rain = 0
KNH1 200656Z 15006KT 14/12 A3021 RMK A01 T01440115  RH  083%=      5-min Rain = 0
KNH1 200657Z 15005KT 15/12 A3021 RMK A01 T01450115  RH  082%=      5-min Rain = 0
KNH1 200658Z 15006KT 15/12 A3021 RMK A01 T01450115  RH  082%=      5-min Rain = 0
KNH1 200659Z 15006KT 15/11 A3021 RMK A01 T01450114  RH  081%=      5-min Rain = 0
KNH1 200700Z 15006KT 15/11 A3021 RMK A01 T01460114  RH  081%=      5-min Rain = 0
KNH1 200701Z 15006KT 15/11 A3021 RMK A01 T01460114  RH  081%=      5-min Rain = 0
KNH1 200702Z 15006KT 15/11 A3021 RMK A01 T01470114  RH  080%=      5-min Rain = 0
KNH1 200703Z 15006KT 15/11 A3021 RMK A01 T01480114  RH  080%=      5-min Rain = 0
KNH1 200704Z 14006KT 15/11 A3021 RMK A01 T01480114  RH  080%=      5-min Rain = 0
KNH1 200705Z 15006KT 15/11 A3021 RMK A01 T01490113  RH  079%=      5-min Rain = 0
KNH1 200706Z 15006KT 15/11 A3021 RMK A01 T01490113  RH  079%=      5-min Rain = 0
KNH1 200707Z 15005KT 15/11 A3021 RMK A01 T01490113  RH  079%=      5-min Rain = 0
KNH1 200708Z 15005KT 15/11 A3021 RMK A01 T01490113  RH  079%=      5-min Rain = 0
KNH1 200709Z 15006KT 15/11 A3021 RMK A01 T01490113  RH  079%=      5-min Rain = 0
KNH1 200710Z 15006KT 15/11 A3021 RMK A01 T01490112  RH  078%=      5-min Rain = 0
KNH1 200711Z 15006KT 15/11 A3021 RMK A01 T01490111  RH  078%=      5-min Rain = 0
KNH1 200712Z 15005KT 15/11 A3021 RMK A01 T01490111  RH  078%=      5-min Rain = 0
KNH1 200713Z 15005KT 15/11 A3021 RMK A01 T01490111  RH  078%=      5-min Rain = 0
KNH1 200714Z 15006KT 15/11 A3021 RMK A01 T01490110  RH  078%=      5-min Rain = 0
KNH1 200715Z 15006KT 15/11 A3021 RMK A01 T01490111  RH  078%=      5-min Rain = 0
KNH1 200716Z 15005KT 15/11 A3021 RMK A01 T01480111  RH  078%=      5-min Rain = 0
KNH1 200717Z 15005KT 15/11 A3021 RMK A01 T01490111  RH  078%=      5-min Rain = 0
KNH1 200718Z 15005KT 15/11 A3021 RMK A01 T01490111  RH  078%=      5-min Rain = 0
KNH1 200719Z 15004KT 15/11 A3021 RMK A01 T01480111  RH  078%=      5-min Rain = 0
KNH1 200720Z 15005KT 15/11 A3021 RMK A01 T01480111  RH  078%=      5-min Rain = 0
KNH1 200721Z 15005KT 15/11 A3021 RMK A01 T01480111  RH  078%=      5-min Rain = 0
KNH1 200722Z 15005KT 15/11 A3021 RMK A01 T01490111  RH  078%=      5-min Rain = 0
KNH1 200723Z 15005KT 15/11 A3021 RMK A01 T01490111  RH  078%=      5-min Rain = 0
KNH1 200724Z 15005KT 15/11 A3021 RMK A01 T01480111  RH  078%=      5-min Rain = 0
KNH1 200725Z 14006KT 15/11 A3021 RMK A01 T01480111  RH  078%=      5-min Rain = 0
KNH1 200726Z 15004KT 15/11 A3021 RMK A01 T01490111  RH  078%=      5-min Rain = 0
KNH1 200727Z 15005KT 15/11 A3021 RMK A01 T01480111  RH  078%=      5-min Rain = 0
KNH1 200728Z 15004KT 15/11 A3021 RMK A01 T01480110  RH  078%=      5-min Rain = 0
KNH1 200729Z 15005KT 15/11 A3021 RMK A01 T01480111  RH  078%=      5-min Rain = 0
KNH1 200730Z 15005KT 15/11 A3021 RMK A01 T01480111  RH  078%=      5-min Rain = 0
KNH1 200731Z 15004KT 15/11 A3021 RMK A01 T01470110  RH  078%=      5-min Rain = 0
KNH1 200732Z 15005KT 15/11 A3021 RMK A01 T01470110  RH  079%=      5-min Rain = 0
KNH1 200733Z 15005KT 15/11 A3021 RMK A01 T01470110  RH  079%=      5-min Rain = 0
KNH1 200734Z 15005KT 15/11 A3021 RMK A01 T01460110  RH  079%=      5-min Rain = 0
KNH1 200735Z 15004KT 15/11 A3021 RMK A01 T01460110  RH  079%=      5-min Rain = 0
KNH1 200736Z 15005KT 15/11 A3021 RMK A01 T01460110  RH  079%=      5-min Rain = 0
KNH1 200737Z 15006KT 15/11 A3021 RMK A01 T01460110  RH  079%=      5-min Rain = 0
KNH1 200738Z 15005KT 15/11 A3021 RMK A01 T01460110  RH  079%=      5-min Rain = 0
KNH1 200739Z 16005KT 15/11 A3021 RMK A01 T01460110  RH  079%=      5-min Rain = 0
KNH1 200740Z 15005KT 15/11 A3021 RMK A01 T01460110  RH  079%=      5-min Rain = 0
KNH1 200741Z 15005KT 15/11 A3021 RMK A01 T01460110  RH  079%=      5-min Rain = 0
KNH1 200742Z 15005KT 15/11 A3021 RMK A01 T01460110  RH  079%=      5-min Rain = 0
KNH1 200743Z 15005KT 15/11 A3021 RMK A01 T01460110  RH  079%=      5-min Rain = 0
KNH1 200744Z 15006KT 15/11 A3021 RMK A01 T01460110  RH  079%=      5-min Rain = 0
KNH1 200745Z 15005KT 15/11 A3021 RMK A01 T01460110  RH  079%=      5-min Rain = 0
KNH1 200746Z 15006KT 15/11 A3021 RMK A01 T01460110  RH  079%=      5-min Rain = 0
KNH1 200747Z 15005KT 15/11 A3021 RMK A01 T01450109  RH  079%=      5-min Rain = 0
KNH1 200748Z 15006KT 15/11 A3021 RMK A01 T01450110  RH  079%=      5-min Rain = 0
KNH1 200749Z 15005KT 15/11 A3021 RMK A01 T01450110  RH  079%=      5-min Rain = 0
KNH1 200750Z 15006KT 15/11 A3021 RMK A01 T01450110  RH  079%=      5-min Rain = 0
KNH1 200751Z 15006KT 15/11 A3021 RMK A01 T01450110  RH  079%=      5-min Rain = 0
KNH1 200752Z 16005KT 15/11 A3021 RMK A01 T01450110  RH  080%=      5-min Rain = 0
KNH1 200753Z 15005KT 15/11 A3021 RMK A01 T01450110  RH  080%=      5-min Rain = 0
KNH1 200754Z 15004KT 14/11 A3021 RMK A01 T01440110  RH  080%=      5-min Rain = 0
KNH1 200755Z 15005KT 14/11 A3021 RMK A01 T01440110  RH  080%=      5-min Rain = 0
KNH1 200756Z 15005KT 14/11 A3021 RMK A01 T01440110  RH  080%=      5-min Rain = 0
KNH1 200757Z 15005KT 14/11 A3021 RMK A01 T01440110  RH  080%=      5-min Rain = 0
KNH1 200758Z 15005KT 14/11 A3021 RMK A01 T01440109  RH  080%=      5-min Rain = 0
KNH1 200759Z 16005KT 14/11 A3021 RMK A01 T01430109  RH  080%=      5-min Rain = 0
KNH1 200800Z 15005KT 14/11 A3021 RMK A01 T01430109  RH  080%=      5-min Rain = 0
KNH1 200801Z 15005KT 14/11 A3021 RMK A01 T01430109  RH  080%=      5-min Rain = 0
KNH1 200802Z 15006KT 14/11 A3021 RMK A01 T01420108  RH  080%=      5-min Rain = 0
KNH1 200803Z 15005KT 14/11 A3021 RMK A01 T01420108  RH  080%=      5-min Rain = 0
KNH1 200804Z 15005KT 14/11 A3021 RMK A01 T01410108  RH  080%=      5-min Rain = 0
KNH1 200805Z 15005KT 14/11 A3021 RMK A01 T01410108  RH  080%=      5-min Rain = 0
KNH1 200806Z 15006KT 14/11 A3021 RMK A01 T01410108  RH  081%=      5-min Rain = 0
KNH1 200807Z 15006KT 14/11 A3021 RMK A01 T01410108  RH  081%=      5-min Rain = 0
KNH1 200808Z 15006KT 14/11 A3021 RMK A01 T01400108  RH  081%=      5-min Rain = 0
KNH1 200809Z 15005KT 14/11 A3021 RMK A01 T01400108  RH  081%=      5-min Rain = 0
KNH1 200810Z 15006KT 14/11 A3021 RMK A01 T01400108  RH  081%=      5-min Rain = 0
KNH1 200811Z 15006KT 14/11 A3021 RMK A01 T01400108  RH  081%=      5-min Rain = 0
KNH1 200812Z 15006KT 14/11 A3021 RMK A01 T01400108  RH  081%=      5-min Rain = 0
KNH1 200813Z 15005KT 14/11 A3021 RMK A01 T01410108  RH  081%=      5-min Rain = 0
KNH1 200814Z 15005KT 14/11 A3021 RMK A01 T01410108  RH  081%=      5-min Rain = 0
KNH1 200815Z 15005KT 14/11 A3021 RMK A01 T01400108  RH  081%=      5-min Rain = 0
KNH1 200816Z 15005KT 14/11 A3021 RMK A01 T01400108  RH  081%=      5-min Rain = 0
KNH1 200817Z 15005KT 14/11 A3021 RMK A01 T01400107  RH  081%=      5-min Rain = 0
KNH1 200818Z 15005KT 14/11 A3021 RMK A01 T01400107  RH  081%=      5-min Rain = 0
KNH1 200819Z 15005KT 14/11 A3021 RMK A01 T01390107  RH  081%=      5-min Rain = 0
KNH1 200820Z 15005KT 14/11 A3021 RMK A01 T01390107  RH  081%=      5-min Rain = 0
KNH1 200821Z 15005KT 14/11 A3021 RMK A01 T01390107  RH  081%=      5-min Rain = 0
KNH1 200822Z 15005KT 14/11 A3021 RMK A01 T01390107  RH  081%=      5-min Rain = 0
KNH1 200823Z 15005KT 14/11 A3021 RMK A01 T01380107  RH  081%=      5-min Rain = 0
KNH1 200824Z 15005KT 14/11 A3021 RMK A01 T01380107  RH  081%=      5-min Rain = 0
KNH1 200825Z 15005KT 14/11 A3021 RMK A01 T01380107  RH  082%=      5-min Rain = 0
KNH1 200826Z 15005KT 14/11 A3021 RMK A01 T01380107  RH  082%=      5-min Rain = 0
KNH1 200827Z 15005KT 14/11 A3021 RMK A01 T01380107  RH  082%=      5-min Rain = 0
KNH1 200828Z 15005KT 14/11 A3021 RMK A01 T01370107  RH  082%=      5-min Rain = 0
KNH1 200829Z 15005KT 14/11 A3021 RMK A01 T01370107  RH  082%=      5-min Rain = 0
KNH1 200830Z 15005KT 14/11 A3021 RMK A01 T01370107  RH  082%=      5-min Rain = 0
KNH1 200831Z 15005KT 14/11 A3021 RMK A01 T01370107  RH  082%=      5-min Rain = 0
KNH1 200832Z 15005KT 14/11 A3021 RMK A01 T01380107  RH  082%=      5-min Rain = 0
KNH1 200833Z 16006KT 14/11 A3021 RMK A01 T01380107  RH  081%=      5-min Rain = 0
KNH1 200834Z 15005KT 14/11 A3021 RMK A01 T01390107  RH  081%=      5-min Rain = 0
KNH1 200835Z 15005KT 14/11 A3021 RMK A01 T01390107  RH  081%=      5-min Rain = 0
KNH1 200836Z 16005KT 14/11 A3021 RMK A01 T01390107  RH  081%=      5-min Rain = 0
KNH1 200837Z 15005KT 14/11 A3021 RMK A01 T01390106  RH  081%=      5-min Rain = 0
KNH1 200838Z 15005KT 14/11 A3021 RMK A01 T01380106  RH  081%=      5-min Rain = 0
KNH1 200839Z 15006KT 14/11 A3021 RMK A01 T01380106  RH  081%=      5-min Rain = 0
KNH1 200840Z 16006KT 14/11 A3021 RMK A01 T01380106  RH  081%=      5-min Rain = 0
KNH1 200841Z 16006KT 14/11 A3021 RMK A01 T01380106  RH  081%=      5-min Rain = 0
KNH1 200842Z 15006KT 14/11 A3021 RMK A01 T01380106  RH  081%=      5-min Rain = 0
KNH1 200843Z 15006KT 14/11 A3021 RMK A01 T01380106  RH  081%=      5-min Rain = 0
KNH1 200844Z 15006KT 14/11 A3021 RMK A01 T01380106  RH  081%=      5-min Rain = 0
KNH1 200845Z 15005KT 14/11 A3021 RMK A01 T01380106  RH  081%=      5-min Rain = 0
KNH1 200846Z 16006KT 14/11 A3021 RMK A01 T01380106  RH  081%=      5-min Rain = 0
KNH1 200847Z 15005KT 14/11 A3021 RMK A01 T01380106  RH  081%=      5-min Rain = 0
KNH1 200848Z 16005KT 14/11 A3021 RMK A01 T01380106  RH  081%=      5-min Rain = 0
KNH1 200849Z 15005KT 14/11 A3021 RMK A01 T01370106  RH  081%=      5-min Rain = 0
KNH1 200850Z 16006KT 14/11 A302 RMK A01 T01370106  RH  081%=      5-min Rain = 0
KNH1 200851Z 15005KT 14/11 A302 RMK A01 T01370106  RH  082%=      5-min Rain = 0
KNH1 200852Z 15005KT 14/11 A302 RMK A01 T01370106  RH  082%=      5-min Rain = 0
KNH1 200853Z 15005KT 14/11 A302 RMK A01 T01360106  RH  082%=      5-min Rain = 0
KNH1 200854Z 15005KT 14/11 A302 RMK A01 T01360106  RH  082%=      5-min Rain = 0
KNH1 200855Z 15005KT 14/11 A302 RMK A01 T01360106  RH  082%=      5-min Rain = 0
KNH1 200856Z 15005KT 14/11 A302 RMK A01 T01360106  RH  082%=      5-min Rain = 0
KNH1 200857Z 15005KT 14/11 A302 RMK A01 T01360106  RH  082%=      5-min Rain = 0
KNH1 200858Z 15005KT 14/11 A302 RMK A01 T01360106  RH  082%=      5-min Rain = 0
KNH1 200859Z 15005KT 14/11 A302 RMK A01 T01350105  RH  082%=      5-min Rain = 0
KNH1 200900Z 15005KT 14/11 A302 RMK A01 T01350105  RH  082%=      5-min Rain = 0
KNH1 200901Z 15005KT 14/11 A302 RMK A01 T01350105  RH  082%=      5-min Rain = 0
KNH1 200902Z 15005KT 13/11 A302 RMK A01 T01340105  RH  083%=      5-min Rain = 0
KNH1 200903Z 15005KT 13/11 A302 RMK A01 T01340105  RH  083%=      5-min Rain = 0
KNH1 200904Z 15004KT 13/11 A302 RMK A01 T01340105  RH  083%=      5-min Rain = 0
KNH1 200905Z 15005KT 13/11 A302 RMK A01 T01340105  RH  083%=      5-min Rain = 0
KNH1 200906Z 15004KT 13/11 A302 RMK A01 T01340105  RH  083%=      5-min Rain = 0
KNH1 200907Z 15004KT 13/11 A302 RMK A01 T01340105  RH  083%=      5-min Rain = 0
KNH1 200908Z 15005KT 13/11 A302 RMK A01 T01340105  RH  083%=      5-min Rain = 0
KNH1 200909Z 15005KT 13/11 A302 RMK A01 T01340105  RH  083%=      5-min Rain = 0
KNH1 200910Z 15005KT 13/11 A302 RMK A01 T01340105  RH  083%=      5-min Rain = 0
KNH1 200911Z 15005KT 13/11 A302 RMK A01 T01340105  RH  082%=      5-min Rain = 0
KNH1 200912Z 15005KT 14/11 A302 RMK A01 T01350105  RH  082%=      5-min Rain = 0
KNH1 200913Z 15005KT 14/11 A302 RMK A01 T01350105  RH  082%=      5-min Rain = 0
KNH1 200914Z 15004KT 14/11 A302 RMK A01 T01350105  RH  082%=      5-min Rain = 0
KNH1 200915Z 15004KT 14/11 A302 RMK A01 T01350105  RH  082%=      5-min Rain = 0
KNH1 200916Z 15004KT 14/11 A302 RMK A01 T01350105  RH  082%=      5-min Rain = 0
KNH1 200917Z 15005KT 14/11 A302 RMK A01 T01360105  RH  082%=      5-min Rain = 0
KNH1 200918Z 16004KT 14/11 A302 RMK A01 T01360105  RH  081%=      5-min Rain = 0
KNH1 200919Z 15004KT 14/11 A302 RMK A01 T01360105  RH  081%=      5-min Rain = 0
KNH1 200920Z 15004KT 14/10 A302 RMK A01 T01360104  RH  081%=      5-min Rain = 0
KNH1 200921Z 15004KT 14/10 A302 RMK A01 T01350104  RH  081%=      5-min Rain = 0
KNH1 200922Z 16004KT 14/11 A302 RMK A01 T01360105  RH  081%=      5-min Rain = 0
KNH1 200923Z 16004KT 14/11 A302 RMK A01 T01360105  RH  082%=      5-min Rain = 0
KNH1 200924Z 16005KT 14/10 A302 RMK A01 T01350104  RH  081%=      5-min Rain = 0
KNH1 200925Z 16005KT 14/10 A302 RMK A01 T01350104  RH  082%=      5-min Rain = 0
KNH1 200926Z 15004KT 14/10 A302 RMK A01 T01350104  RH  082%=      5-min Rain = 0
KNH1 200927Z 16004KT 14/10 A302 RMK A01 T01350104  RH  082%=      5-min Rain = 0
KNH1 200928Z 15004KT 14/10 A302 RMK A01 T01350104  RH  082%=      5-min Rain = 0
KNH1 200929Z 16004KT 14/10 A302 RMK A01 T01350104  RH  082%=      5-min Rain = 0
KNH1 200930Z 16004KT 13/10 A302 RMK A01 T01340104  RH  082%=      5-min Rain = 0
KNH1 200931Z 15005KT 13/10 A302 RMK A01 T01340104  RH  082%=      5-min Rain = 0
KNH1 200932Z 16004KT 13/10 A302 RMK A01 T01340104  RH  082%=      5-min Rain = 0
KNH1 200933Z 16005KT 13/10 A302 RMK A01 T01340104  RH  082%=      5-min Rain = 0
KNH1 200934Z 16004KT 13/10 A302 RMK A01 T01340104  RH  082%=      5-min Rain = 0
KNH1 200935Z 15005KT 13/10 A302 RMK A01 T01340104  RH  082%=      5-min Rain = 0
KNH1 200936Z 16005KT 13/10 A302 RMK A01 T01340104  RH  082%=      5-min Rain = 0
KNH1 200937Z 16004KT 13/10 A302 RMK A01 T01340104  RH  082%=      5-min Rain = 0
KNH1 200938Z 16004KT 13/10 A302 RMK A01 T01340104  RH  082%=      5-min Rain = 0
KNH1 200939Z 15004KT 13/10 A302 RMK A01 T01340104  RH  082%=      5-min Rain = 0
KNH1 200940Z 15005KT 13/10 A302 RMK A01 T01340104  RH  082%=      5-min Rain = 0
KNH1 200941Z 16004KT 13/10 A302 RMK A01 T01340104  RH  082%=      5-min Rain = 0
KNH1 200942Z 16005KT 13/10 A302 RMK A01 T01340104  RH  082%=      5-min Rain = 0
KNH1 200943Z 16004KT 13/10 A302 RMK A01 T01340104  RH  082%=      5-min Rain = 0
KNH1 200944Z 15004KT 13/10 A302 RMK A01 T01340104  RH  082%=      5-min Rain = 0
KNH1 200945Z 15004KT 13/10 A302 RMK A01 T01340104  RH  082%=      5-min Rain = 0
KNH1 200946Z 16004KT 13/10 A3021 RMK A01 T01330103  RH  082%=      5-min Rain = 0
KNH1 200947Z 16004KT 13/10 A3021 RMK A01 T01330104  RH  082%=      5-min Rain = 0
KNH1 200948Z 16004KT 13/10 A3021 RMK A01 T01330104  RH  082%=      5-min Rain = 0
KNH1 200949Z 16003KT 13/10 A3021 RMK A01 T01330104  RH  082%=      5-min Rain = 0
KNH1 200950Z 15003KT 13/10 A3021 RMK A01 T01320103  RH  083%=      5-min Rain = 0
KNH1 200951Z 16003KT 13/10 A3021 RMK A01 T01320103  RH  083%=      5-min Rain = 0
KNH1 200952Z 16004KT 13/10 A3021 RMK A01 T01310103  RH  083%=      5-min Rain = 0
KNH1 200953Z 16004KT 13/10 A3021 RMK A01 T01310103  RH  083%=      5-min Rain = 0
KNH1 200954Z 16003KT 13/10 A3021 RMK A01 T01310103  RH  083%=      5-min Rain = 0
KNH1 200955Z 16003KT 13/10 A3021 RMK A01 T01310104  RH  083%=      5-min Rain = 0
KNH1 200956Z 16003KT 13/10 A3021 RMK A01 T01310103  RH  083%=      5-min Rain = 0
KNH1 200957Z 16003KT 13/10 A3021 RMK A01 T01310103  RH  083%=      5-min Rain = 0
KNH1 200958Z 15004KT 13/10 A3021 RMK A01 T01310103  RH  083%=      5-min Rain = 0
KNH1 200959Z 16004KT 13/10 A3021 RMK A01 T01300103  RH  083%=      5-min Rain = 0
KNH1 201000Z 15004KT 13/10 A3021 RMK A01 T01300103  RH  084%=      5-min Rain = 0
KNH1 201001Z 15004KT 13/10 A3021 RMK A01 T01300102  RH  084%=      5-min Rain = 0
KNH1 201002Z 15003KT 13/10 A3021 RMK A01 T01290103  RH  084%=      5-min Rain = 0
KNH1 201003Z 15004KT 13/10 A3021 RMK A01 T01290103  RH  084%=      5-min Rain = 0
KNH1 201004Z 16004KT 13/10 A3021 RMK A01 T01290103  RH  084%=      5-min Rain = 0
KNH1 201005Z 16004KT 13/10 A3021 RMK A01 T01290103  RH  084%=      5-min Rain = 0
KNH1 201006Z 16004KT 13/10 A3021 RMK A01 T01290103  RH  084%=      5-min Rain = 0
KNH1 201007Z 16004KT 13/10 A3021 RMK A01 T01290103  RH  084%=      5-min Rain = 0
KNH1 201008Z 16004KT 13/10 A3021 RMK A01 T01290103  RH  084%=      5-min Rain = 0
KNH1 201009Z 16004KT 13/10 A3021 RMK A01 T01300104  RH  084%=      5-min Rain = 0
KNH1 201010Z 16004KT 13/10 A3021 RMK A01 T01300104  RH  084%=      5-min Rain = 0
KNH1 201011Z 16004KT 13/10 A3021 RMK A01 T01310104  RH  084%=      5-min Rain = 0
KNH1 201012Z 16004KT 13/10 A3021 RMK A01 T01310104  RH  084%=      5-min Rain = 0
KNH1 201013Z 16004KT 13/10 A3021 RMK A01 T01320104  RH  084%=      5-min Rain = 0
KNH1 201014Z 16003KT 13/10 A3021 RMK A01 T01320104  RH  083%=      5-min Rain = 0
KNH1 201015Z 16004KT 13/10 A3021 RMK A01 T01320104  RH  083%=      5-min Rain = 0
KNH1 201016Z 16004KT 13/10 A3021 RMK A01 T01320104  RH  083%=      5-min Rain = 0
KNH1 201017Z 16004KT 13/10 A3021 RMK A01 T01320104  RH  083%=      5-min Rain = 0
KNH1 201018Z 16005KT 13/10 A3021 RMK A01 T01320104  RH  083%=      5-min Rain = 0
KNH1 201019Z 16005KT 13/10 A3021 RMK A01 T01320104  RH  083%=      5-min Rain = 0
KNH1 201020Z 16005KT 13/10 A3021 RMK A01 T01320104  RH  083%=      5-min Rain = 0
KNH1 201021Z 16005KT 13/10 A3021 RMK A01 T01320104  RH  083%=      5-min Rain = 0
KNH1 201022Z 17005KT 13/10 A3021 RMK A01 T01320104  RH  083%=      5-min Rain = 0
KNH1 201023Z 17005KT 13/10 A3021 RMK A01 T01320104  RH  083%=      5-min Rain = 0
KNH1 201024Z 17005KT 13/10 A3021 RMK A01 T01320104  RH  083%=      5-min Rain = 0
KNH1 201025Z 17004KT 13/10 A3021 RMK A01 T01330104  RH  083%=      5-min Rain = 0
KNH1 201026Z 17004KT 13/10 A3021 RMK A01 T01320104  RH  083%=      5-min Rain = 0
KNH1 201027Z 17004KT 13/10 A3021 RMK A01 T01320103  RH  083%=      5-min Rain = 0
KNH1 201028Z 17004KT 13/10 A3021 RMK A01 T01310103  RH  083%=      5-min Rain = 0
KNH1 201029Z 17004KT 13/10 A3021 RMK A01 T01310103  RH  083%=      5-min Rain = 0
KNH1 201030Z 17004KT 13/10 A3021 RMK A01 T01300103  RH  084%=      5-min Rain = 0
KNH1 201031Z 17004KT 13/10 A3021 RMK A01 T01310104  RH  084%=      5-min Rain = 0
KNH1 201032Z 17005KT 13/10 A3021 RMK A01 T01300103  RH  084%=      5-min Rain = 0
KNH1 201033Z 17004KT 13/10 A3021 RMK A01 T01300103  RH  084%=      5-min Rain = 0
KNH1 201034Z 17005KT 13/10 A3021 RMK A01 T01300103  RH  084%=      5-min Rain = 0
KNH1 201035Z 17005KT 13/10 A3021 RMK A01 T01300104  RH  084%=      5-min Rain = 0
KNH1 201036Z 16005KT 13/10 A3021 RMK A01 T01300103  RH  084%=      5-min Rain = 0
KNH1 201037Z 16005KT 13/10 A3021 RMK A01 T01300104  RH  084%=      5-min Rain = 0
KNH1 201038Z 16005KT 13/10 A3021 RMK A01 T01300104  RH  084%=      5-min Rain = 0
KNH1 201039Z 17004KT 13/10 A3021 RMK A01 T01300104  RH  084%=      5-min Rain = 0
KNH1 201040Z 16005KT 13/10 A3021 RMK A01 T01300104  RH  084%=      5-min Rain = 0
KNH1 201041Z 16005KT 13/10 A3021 RMK A01 T01300104  RH  084%=      5-min Rain = 0
KNH1 201042Z 16005KT 13/10 A3021 RMK A01 T01300104  RH  085%=      5-min Rain = 0
KNH1 201043Z 16005KT 13/10 A3021 RMK A01 T01300104  RH  085%=      5-min Rain = 0
KNH1 201044Z 16005KT 13/11 A3021 RMK A01 T01300105  RH  085%=      5-min Rain = 0
KNH1 201045Z 17005KT 13/11 A3021 RMK A01 T01310105  RH  084%=      5-min Rain = 0
KNH1 201046Z 17005KT 13/10 A3021 RMK A01 T01310104  RH  084%=      5-min Rain = 0
KNH1 201047Z 17004KT 13/10 A3021 RMK A01 T01310104  RH  084%=      5-min Rain = 0
KNH1 201048Z 17005KT 13/10 A3021 RMK A01 T01310104  RH  084%=      5-min Rain = 0
KNH1 201049Z 17005KT 13/10 A3021 RMK A01 T01300104  RH  084%=      5-min Rain = 0
KNH1 201050Z 17005KT 13/10 A3021 RMK A01 T01300103  RH  084%=      5-min Rain = 0
KNH1 201051Z 17005KT 13/10 A3021 RMK A01 T01290103  RH  084%=      5-min Rain = 0
KNH1 201052Z 17005KT 13/10 A3021 RMK A01 T01290104  RH  085%=      5-min Rain = 0
KNH1 201053Z 17005KT 13/10 A3021 RMK A01 T01290104  RH  085%=      5-min Rain = 0
KNH1 201054Z 17005KT 13/10 A3021 RMK A01 T01280104  RH  085%=      5-min Rain = 0
KNH1 201055Z 17005KT 13/10 A3021 RMK A01 T01280104  RH  085%=      5-min Rain = 0
KNH1 201056Z 17005KT 13/10 A3021 RMK A01 T01280104  RH  085%=      5-min Rain = 0
KNH1 201057Z 17005KT 13/10 A3021 RMK A01 T01280104  RH  085%=      5-min Rain = 0
KNH1 201058Z 17005KT 13/11 A3021 RMK A01 T01280105  RH  086%=      5-min Rain = 0
KNH1 201059Z 17005KT 13/11 A3021 RMK A01 T01290105  RH  086%=      5-min Rain = 0
KNH1 201100Z 17005KT 13/11 A3021 RMK A01 T01280105  RH  086%=      5-min Rain = 0
KNH1 201101Z 17005KT 13/11 A3021 RMK A01 T01280105  RH  086%=      5-min Rain = 0
KNH1 201102Z 17005KT 13/11 A3021 RMK A01 T01280105  RH  086%=      5-min Rain = 0
KNH1 201103Z 17005KT 13/11 A3021 RMK A01 T01280105  RH  086%=      5-min Rain = 0
KNH1 201104Z 17005KT 13/11 A3021 RMK A01 T01290105  RH  086%=      5-min Rain = 0
KNH1 201105Z 16005KT 13/11 A3021 RMK A01 T01290106  RH  086%=      5-min Rain = 0
KNH1 201106Z 17005KT 13/11 A3021 RMK A01 T01300106  RH  086%=      5-min Rain = 0
KNH1 201107Z 17005KT 13/11 A3021 RMK A01 T01300106  RH  085%=      5-min Rain = 0
KNH1 201108Z 17005KT 13/11 A3021 RMK A01 T01300106  RH  086%=      5-min Rain = 0
KNH1 201109Z 17005KT 13/11 A3021 RMK A01 T01300106  RH  085%=      5-min Rain = 0
KNH1 201110Z 16005KT 13/11 A3022 RMK A01 T01300107  RH  086%=      5-min Rain = 0
KNH1 201111Z 17005KT 13/11 A3022 RMK A01 T01300107  RH  086%=      5-min Rain = 0
KNH1 201112Z 16004KT 13/11 A3022 RMK A01 T01300107  RH  086%=      5-min Rain = 0
KNH1 201113Z 17004KT 13/11 A3022 RMK A01 T01310107  RH  086%=      5-min Rain = 0
KNH1 201114Z 17005KT 13/11 A3022 RMK A01 T01300107  RH  085%=      5-min Rain = 0
KNH1 201115Z 17004KT 13/11 A3022 RMK A01 T01310107  RH  085%=      5-min Rain = 0
KNH1 201116Z 16004KT 13/11 A3022 RMK A01 T01300106  RH  085%=      5-min Rain = 0
KNH1 201117Z 16004KT 13/11 A3022 RMK A01 T01300106  RH  086%=      5-min Rain = 0
KNH1 201118Z 17004KT 13/11 A3022 RMK A01 T01300106  RH  086%=      5-min Rain = 0
KNH1 201119Z 17004KT 13/11 A3022 RMK A01 T01300106  RH  085%=      5-min Rain = 0
KNH1 201120Z 16003KT 13/11 A3022 RMK A01 T01290106  RH  086%=      5-min Rain = 0
KNH1 201121Z 16004KT 13/11 A3022 RMK A01 T01290105  RH  086%=      5-min Rain = 0
KNH1 201122Z 17004KT 13/11 A3022 RMK A01 T01280105  RH  086%=      5-min Rain = 0
KNH1 201123Z 16003KT 13/11 A3022 RMK A01 T01280105  RH  086%=      5-min Rain = 0
KNH1 201124Z 16003KT 13/11 A3022 RMK A01 T01270105  RH  086%=      5-min Rain = 0
KNH1 201125Z 16003KT 13/10 A3022 RMK A01 T01260104  RH  086%=      5-min Rain = 0
KNH1 201126Z 16003KT 13/11 A3022 RMK A01 T01260105  RH  087%=      5-min Rain = 0
KNH1 201127Z 16003KT 13/10 A3022 RMK A01 T01250104  RH  087%=      5-min Rain = 0
KNH1 201128Z 16003KT 13/10 A3022 RMK A01 T01250104  RH  087%=      5-min Rain = 0
KNH1 201129Z 17003KT 12/11 A3022 RMK A01 T01240105  RH  088%=      5-min Rain = 0
KNH1 201130Z 16003KT 12/10 A3022 RMK A01 T01240104  RH  088%=      5-min Rain = 0
KNH1 201131Z 16003KT 12/10 A3022 RMK A01 T01230104  RH  088%=      5-min Rain = 0
KNH1 201132Z 16003KT 12/11 A3022 RMK A01 T01230105  RH  089%=      5-min Rain = 0
KNH1 201133Z 16003KT 12/11 A3022 RMK A01 T01220105  RH  089%=      5-min Rain = 0
KNH1 201134Z 16003KT 12/10 A3022 RMK A01 T01220104  RH  089%=      5-min Rain = 0
KNH1 201135Z 16003KT 12/11 A3022 RMK A01 T01220105  RH  090%=      5-min Rain = 0
KNH1 201136Z 16003KT 12/11 A3022 RMK A01 T01220106  RH  090%=      5-min Rain = 0
KNH1 201137Z 15003KT 12/11 A3022 RMK A01 T01210105  RH  090%=      5-min Rain = 0
KNH1 201138Z 15003KT 12/11 A3022 RMK A01 T01210106  RH  090%=      5-min Rain = 0
KNH1 201139Z 15003KT 12/11 A3022 RMK A01 T01200105  RH  090%=      5-min Rain = 0
KNH1 201140Z 16003KT 12/11 A3022 RMK A01 T01200105  RH  091%=      5-min Rain = 0
KNH1 201141Z 15003KT 12/11 A3022 RMK A01 T01200105  RH  091%=      5-min Rain = 0
KNH1 201142Z 16003KT 12/11 A3022 RMK A01 T01190105  RH  091%=      5-min Rain = 0
KNH1 201143Z 15003KT 12/11 A3022 RMK A01 T01190105  RH  091%=      5-min Rain = 0
KNH1 201144Z 15002KT 12/11 A3022 RMK A01 T01190105  RH  091%=      5-min Rain = 0
KNH1 201145Z 15002KT 12/11 A3022 RMK A01 T01190106  RH  091%=      5-min Rain = 0
KNH1 201146Z 15002KT 12/11 A3022 RMK A01 T01190105  RH  091%=      5-min Rain = 0
KNH1 201147Z 15002KT 12/11 A3022 RMK A01 T01190105  RH  092%=      5-min Rain = 0
KNH1 201148Z 15002KT 12/11 A3022 RMK A01 T01180106  RH  092%=      5-min Rain = 0
KNH1 201149Z 15002KT 12/11 A3022 RMK A01 T01180106  RH  092%=      5-min Rain = 0
KNH1 201150Z 15002KT 12/11 A3022 RMK A01 T01180107  RH  092%=      5-min Rain = 0
KNH1 201151Z 16002KT 12/11 A3022 RMK A01 T01180107  RH  092%=      5-min Rain = 0
KNH1 201152Z 15003KT 12/11 A3022 RMK A01 T01180106  RH  092%=      5-min Rain = 0
KNH1 201153Z 15003KT 12/11 A3022 RMK A01 T01180106  RH  092%=      5-min Rain = 0
KNH1 201154Z 15003KT 12/11 A3022 RMK A01 T01180106  RH  092%=      5-min Rain = 0
KNH1 201155Z 15003KT 12/11 A3022 RMK A01 T01170106  RH  092%=      5-min Rain = 0
KNH1 201156Z 15003KT 12/11 A3022 RMK A01 T01170105  RH  092%=      5-min Rain = 0
KNH1 201157Z 15003KT 12/11 A3022 RMK A01 T01160105  RH  093%=      5-min Rain = 0
KNH1 201158Z 15003KT 12/11 A3022 RMK A01 T01160106  RH  093%=      5-min Rain = 0
KNH1 201159Z 15004KT 12/11 A3022 RMK A01 T01160106  RH  093%=      5-min Rain = 0
KNH1 201200Z 16003KT 12/11 A3022 RMK A01 T01160105  RH  093%=      5-min Rain = 0
KNH1 201201Z 15003KT 12/11 A3022 RMK A01 T01160106  RH  094%=      5-min Rain = 0
KNH1 201202Z 15003KT 12/11 A3022 RMK A01 T01150106  RH  094%=      5-min Rain = 0
KNH1 201203Z 15003KT 12/11 A3022 RMK A01 T01160107  RH  095%=      5-min Rain = 0
KNH1 201204Z 15002KT 12/11 A3022 RMK A01 T01160107  RH  094%=      5-min Rain = 0
KNH1 201205Z 14003KT 12/11 A3022 RMK A01 T01160105  RH  093%=      5-min Rain = 0
KNH1 201206Z 14003KT 12/11 A3022 RMK A01 T01160106  RH  093%=      5-min Rain = 0
KNH1 201207Z 13003KT 12/11 A3022 RMK A01 T01170105  RH  093%=      5-min Rain = 0
KNH1 201208Z 13003KT 12/10 A3022 RMK A01 T01160104  RH  093%=      5-min Rain = 0
KNH1 201209Z 14003KT 12/10 A3023 RMK A01 T01150103  RH  092%=      5-min Rain = 0
KNH1 201210Z 14003KT 12/10 A3023 RMK A01 T01150103  RH  093%=      5-min Rain = 0
KNH1 201211Z 14003KT 12/11 A3023 RMK A01 T01150105  RH  094%=      5-min Rain = 0
KNH1 201212Z 14003KT 12/11 A3023 RMK A01 T01150105  RH  094%=      5-min Rain = 0
KNH1 201213Z 13003KT 12/11 A3023 RMK A01 T01150106  RH  094%=      5-min Rain = 0
KNH1 201214Z 13003KT 12/11 A3023 RMK A01 T01150106  RH  094%=      5-min Rain = 0
KNH1 201215Z 13003KT 12/11 A3023 RMK A01 T01150106  RH  094%=      5-min Rain = 0
KNH1 201216Z 12003KT 12/11 A3023 RMK A01 T01150106  RH  094%=      5-min Rain = 0
KNH1 201217Z 13003KT 12/11 A3023 RMK A01 T01150105  RH  094%=      5-min Rain = 0
KNH1 201218Z 12003KT 11/10 A3023 RMK A01 T01140104  RH  094%=      5-min Rain = 0
KNH1 201219Z 12002KT 11/10 A3023 RMK A01 T01140104  RH  094%=      5-min Rain = 0
KNH1 201220Z 13002KT 11/11 A3023 RMK A01 T01140105  RH  094%=      5-min Rain = 0
KNH1 201221Z 12002KT 11/10 A3023 RMK A01 T01130103  RH  093%=      5-min Rain = 0
KNH1 201222Z 13001KT 11/10 A3023 RMK A01 T01120101  RH  093%=      5-min Rain = 0
KNH1 201223Z 12001KT 11/10 A3023 RMK A01 T01120102  RH  094%=      5-min Rain = 0
KNH1 201224Z 12001KT 11/10 A3023 RMK A01 T01110101  RH  094%=      5-min Rain = 0
KNH1 201225Z 11001KT 11/10 A3023 RMK A01 T01110103  RH  095%=      5-min Rain = 0
KNH1 201226Z 11001KT 11/10 A3023 RMK A01 T01110103  RH  095%=      5-min Rain = 0
KNH1 201227Z 11001KT 11/10 A3023 RMK A01 T01110103  RH  095%=      5-min Rain = 0
KNH1 201228Z 11001KT 11/10 A3023 RMK A01 T01110103  RH  095%=      5-min Rain = 0
KNH1 201229Z 12001KT 11/10 A3023 RMK A01 T01100103  RH  095%=      5-min Rain = 0
KNH1 201230Z 12001KT 11/10 A3023 RMK A01 T01100103  RH  096%=      5-min Rain = 0
KNH1 201231Z 12000KT 11/10 A3023 RMK A01 T01100103  RH  095%=      5-min Rain = 0
KNH1 201232Z 00000KT 11/10 A3023 RMK A01 T01080098  RH  094%=      5-min Rain = 0
KNH1 201233Z 00000KT 11/10 A3023 RMK A01 T01060095  RH  093%=      5-min Rain = 0
KNH1 201234Z 00000KT 11/10 A3023 RMK A01 T01050095  RH  093%=      5-min Rain = 0
KNH1 201235Z 00000KT 11/09 A3023 RMK A01 T01050094  RH  093%=      5-min Rain = 0
KNH1 201236Z 00000KT 10/09 A3023 RMK A01 T01040094  RH  094%=      5-min Rain = 0
KNH1 201237Z 00000KT 10/09 A3023 RMK A01 T01030094  RH  094%=      5-min Rain = 0
KNH1 201238Z 00000KT 10/09 A3023 RMK A01 T01030094  RH  094%=      5-min Rain = 0
KNH1 201239Z 00000KT 10/09 A3023 RMK A01 T01030094  RH  095%=      5-min Rain = 0
KNH1 201240Z 00000KT 10/09 A3023 RMK A01 T01020094  RH  095%=      5-min Rain = 0
KNH1 201241Z 00000KT 10/09 A3023 RMK A01 T01020094  RH  095%=      5-min Rain = 0
KNH1 201242Z 00000KT 10/09 A3023 RMK A01 T01020094  RH  095%=      5-min Rain = 0
KNH1 201243Z 12000KT 10/10 A3023 RMK A01 T01020095  RH  095%=      5-min Rain = 0
KNH1 201244Z 12001KT 10/10 A3023 RMK A01 T01020095  RH  096%=      5-min Rain = 0
KNH1 201245Z 12001KT 10/10 A3023 RMK A01 T01020097  RH  096%=      5-min Rain = 0
KNH1 201246Z 12001KT 10/10 A3023 RMK A01 T01030098  RH  097%=      5-min Rain = 0
KNH1 201247Z 12001KT 10/10 A3023 RMK A01 T01030098  RH  097%=      5-min Rain = 0
KNH1 201248Z 12001KT 10/10 A3023 RMK A01 T01040099  RH  097%=      5-min Rain = 0
KNH1 201249Z 12001KT 10/10 A3023 RMK A01 T01040099  RH  097%=      5-min Rain = 0
KNH1 201250Z 12001KT 10/10 A3023 RMK A01 T01040099  RH  097%=      5-min Rain = 0
KNH1 201251Z 12001KT 11/10 A3023 RMK A01 T01050099  RH  096%=      5-min Rain = 0
KNH1 201252Z 12001KT 10/10 A3023 RMK A01 T01040099  RH  096%=      5-min Rain = 0
KNH1 201253Z 12000KT 10/10 A3023 RMK A01 T01040098  RH  096%=      5-min Rain = 0
KNH1 201254Z 00000KT 10/10 A3023 RMK A01 T01040098  RH  096%=      5-min Rain = 0
KNH1 201255Z 00000KT 10/10 A3023 RMK A01 T01040098  RH  096%=      5-min Rain = 0
KNH1 201256Z 00000KT 10/10 A3023 RMK A01 T01040098  RH  096%=      5-min Rain = 0
KNH1 201257Z 00000KT 10/10 A3024 RMK A01 T01040098  RH  096%=      5-min Rain = 0
KNH1 201258Z 00000KT 10/10 A3024 RMK A01 T01040098  RH  096%=      5-min Rain = 0
KNH1 201259Z 00000KT 10/10 A3024 RMK A01 T01040098  RH  096%=      5-min Rain = 0
KNH1 201300Z 00000KT 10/10 A3024 RMK A01 T01040098  RH  096%=      5-min Rain = 0
KNH1 201301Z 00000KT 10/10 A3024 RMK A01 T01040098  RH  096%=      5-min Rain = 0
KNH1 201302Z 08000KT 10/10 A3024 RMK A01 T01040098  RH  096%=      5-min Rain = 0
KNH1 201303Z 11001KT 10/10 A3024 RMK A01 T01040098  RH  096%=      5-min Rain = 0
KNH1 201304Z 13001KT 10/10 A3023 RMK A01 T01040098  RH  096%=      5-min Rain = 0
KNH1 201305Z 14001KT 11/10 A3023 RMK A01 T01050099  RH  096%=      5-min Rain = 0
KNH1 201306Z 14001KT 11/10 A3023 RMK A01 T01060099  RH  096%=      5-min Rain = 0
KNH1 201307Z 15001KT 11/10 A3023 RMK A01 T01060099  RH  095%=      5-min Rain = 0
KNH1 201308Z 15001KT 11/10 A3023 RMK A01 T01070099  RH  095%=      5-min Rain = 0
KNH1 201309Z 15001KT 11/10 A3023 RMK A01 T01070098  RH  094%=      5-min Rain = 0
KNH1 201310Z 14001KT 11/10 A3023 RMK A01 T01070097  RH  094%=      5-min Rain = 0
KNH1 201311Z 15001KT 11/10 A3023 RMK A01 T01070098  RH  094%=      5-min Rain = 0
KNH1 201312Z 14002KT 11/10 A3023 RMK A01 T01080100  RH  095%=      5-min Rain = 0
KNH1 201313Z 14002KT 11/10 A3023 RMK A01 T01090102  RH  095%=      5-min Rain = 0
KNH1 201314Z 14002KT 11/10 A3023 RMK A01 T01110104  RH  095%=      5-min Rain = 0
KNH1 201315Z 13002KT 11/11 A3023 RMK A01 T01120105  RH  096%=      5-min Rain = 0
KNH1 201316Z 13002KT 11/11 A3023 RMK A01 T01130105  RH  095%=      5-min Rain = 0
KNH1 201317Z 13002KT 11/11 A3023 RMK A01 T01140105  RH  094%=      5-min Rain = 0
KNH1 201318Z 13002KT 11/10 A3024 RMK A01 T01140103  RH  093%=      5-min Rain = 0
KNH1 201319Z 14002KT 12/10 A3024 RMK A01 T01150103  RH  092%=      5-min Rain = 0
KNH1 201320Z 14002KT 12/10 A3024 RMK A01 T01160104  RH  092%=      5-min Rain = 0
KNH1 201321Z 14002KT 12/11 A3024 RMK A01 T01170105  RH  092%=      5-min Rain = 0
KNH1 201322Z 14002KT 12/11 A3024 RMK A01 T01180105  RH  092%=      5-min Rain = 0
KNH1 201323Z 14002KT 12/11 A3024 RMK A01 T01190106  RH  091%=      5-min Rain = 0
KNH1 201324Z 14002KT 12/11 A3024 RMK A01 T01200107  RH  092%=      5-min Rain = 0
KNH1 201325Z 14002KT 12/11 A3024 RMK A01 T01210108  RH  092%=      5-min Rain = 0
KNH1 201326Z 14002KT 12/11 A3024 RMK A01 T01220108  RH  091%=      5-min Rain = 0
KNH1 201327Z 14002KT 12/11 A3024 RMK A01 T01230109  RH  091%=      5-min Rain = 0
KNH1 201328Z 14001KT 12/11 A3024 RMK A01 T01240109  RH  091%=      5-min Rain = 0
KNH1 201329Z 13001KT 12/11 A3024 RMK A01 T01240109  RH  090%=      5-min Rain = 0
KNH1 201330Z 14001KT 13/11 A3024 RMK A01 T01250110  RH  091%=      5-min Rain = 0
KNH1 201331Z 15001KT 13/11 A3024 RMK A01 T01250109  RH  090%=      5-min Rain = 0
KNH1 201332Z 15001KT 13/11 A3024 RMK A01 T01250110  RH  090%=      5-min Rain = 0
KNH1 201333Z 14001KT 13/11 A3024 RMK A01 T01260110  RH  090%=      5-min Rain = 0
KNH1 201334Z 14001KT 13/11 A3024 RMK A01 T01270111  RH  090%=      5-min Rain = 0
KNH1 201335Z 15001KT 13/11 A3024 RMK A01 T01270111  RH  090%=      5-min Rain = 0
KNH1 201336Z 15001KT 13/11 A3024 RMK A01 T01280111  RH  090%=      5-min Rain = 0
KNH1 201337Z 17001KT 13/11 A3024 RMK A01 T01290111  RH  089%=      5-min Rain = 0
KNH1 201338Z 18001KT 13/11 A3024 RMK A01 T01290112  RH  089%=      5-min Rain = 0
KNH1 201339Z 18000KT 13/11 A3024 RMK A01 T01300113  RH  089%=      5-min Rain = 0
KNH1 201340Z 00000KT 13/11 A3024 RMK A01 T01300113  RH  090%=      5-min Rain = 0
KNH1 201341Z 29000KT 13/11 A3024 RMK A01 T01300113  RH  090%=      5-min Rain = 0
KNH1 201342Z 31001KT 13/11 A3025 RMK A01 T01300113  RH  090%=      5-min Rain = 0
KNH1 201343Z 34001KT 13/11 A3025 RMK A01 T01300114  RH  090%=      5-min Rain = 0
KNH1 201344Z 33001KT 13/11 A3025 RMK A01 T01300111  RH  088%=      5-min Rain = 0
KNH1 201345Z 35002KT 13/11 A3025 RMK A01 T01300109  RH  087%=      5-min Rain = 0
KNH1 201346Z 36001KT 13/11 A3025 RMK A01 T01290107  RH  087%=      5-min Rain = 0
KNH1 201347Z 00001KT 13/11 A3025 RMK A01 T01280106  RH  087%=      5-min Rain = 0
KNH1 201348Z 01000KT 13/11 A3025 RMK A01 T01280107  RH  087%=      5-min Rain = 0
KNH1 201349Z 01000KT 13/11 A3025 RMK A01 T01270108  RH  088%=      5-min Rain = 0
KNH1 201350Z 00000KT 13/11 A3025 RMK A01 T01280109  RH  089%=      5-min Rain = 0
KNH1 201351Z 00000KT 13/11 A3025 RMK A01 T01280109  RH  088%=      5-min Rain = 0
KNH1 201352Z 00000KT 13/11 A3025 RMK A01 T01290110  RH  089%=      5-min Rain = 0
KNH1 201353Z 00000KT 13/11 A3025 RMK A01 T01300112  RH  089%=      5-min Rain = 0
KNH1 201354Z 00000KT 13/11 A3025 RMK A01 T01310113  RH  089%=      5-min Rain = 0
KNH1 201355Z 00000KT 13/11 A3025 RMK A01 T01320114  RH  089%=      5-min Rain = 0
KNH1 201356Z 21000KT 13/12 A3025 RMK A01 T01330115  RH  089%=      5-min Rain = 0
KNH1 201357Z 22000KT 13/12 A3025 RMK A01 T01340115  RH  088%=      5-min Rain = 0
KNH1 201358Z 24001KT 14/12 A3025 RMK A01 T01350115  RH  088%=      5-min Rain = 0
KNH1 201359Z 26001KT 14/11 A3025 RMK A01 T01350114  RH  087%=      5-min Rain = 0
KNH1 201400Z 28001KT 14/11 A3025 RMK A01 T01350114  RH  087%=      5-min Rain = 0
KNH1 201401Z 28001KT 14/11 A3025 RMK A01 T01350114  RH  087%=      5-min Rain = 0
KNH1 201402Z 30001KT 14/11 A3025 RMK A01 T01350113  RH  087%=      5-min Rain = 0
KNH1 201403Z 30001KT 14/11 A3025 RMK A01 T01350114  RH  087%=      5-min Rain = 0
KNH1 201404Z 30001KT 14/11 A3025 RMK A01 T01350112  RH  086%=      5-min Rain = 0
KNH1 201405Z 30001KT 14/11 A3025 RMK A01 T01350113  RH  086%=      5-min Rain = 0
KNH1 201406Z 30000KT 14/11 A3025 RMK A01 T01360114  RH  087%=      5-min Rain = 0
KNH1 201407Z 00000KT 14/12 A3025 RMK A01 T01370115  RH  086%=      5-min Rain = 0
KNH1 201408Z 00000KT 14/12 A3025 RMK A01 T01390116  RH  086%=      5-min Rain = 0
KNH1 201409Z 00000KT 14/12 A3025 RMK A01 T01400117  RH  086%=      5-min Rain = 0
KNH1 201410Z 00000KT 14/12 A3025 RMK A01 T01400117  RH  086%=      5-min Rain = 0
KNH1 201411Z 00000KT 14/12 A3025 RMK A01 T01420117  RH  085%=      5-min Rain = 0
KNH1 201412Z 00000KT 14/12 A3025 RMK A01 T01430117  RH  084%=      5-min Rain = 0
KNH1 201413Z 00000KT 15/12 A3025 RMK A01 T01450121  RH  085%=      5-min Rain = 0
KNH1 201414Z 20000KT 15/12 A3025 RMK A01 T01470121  RH  084%=      5-min Rain = 0
KNH1 201415Z 20000KT 15/12 A3025 RMK A01 T01490118  RH  082%=      5-min Rain = 0
KNH1 201416Z 17001KT 15/12 A3025 RMK A01 T01490117  RH  081%=      5-min Rain = 0
KNH1 201417Z 16001KT 15/12 A3025 RMK A01 T01490116  RH  081%=      5-min Rain = 0
KNH1 201418Z 18001KT 15/12 A3025 RMK A01 T01480116  RH  081%=      5-min Rain = 0
KNH1 201419Z 19002KT 15/12 A3025 RMK A01 T01480117  RH  082%=      5-min Rain = 0
KNH1 201420Z 18002KT 15/12 A3025 RMK A01 T01480117  RH  082%=      5-min Rain = 0
KNH1 201421Z 19001KT 15/12 A3025 RMK A01 T01490118  RH  082%=      5-min Rain = 0
KNH1 201422Z 22001KT 15/12 A3025 RMK A01 T01490118  RH  082%=      5-min Rain = 0
KNH1 201423Z 19002KT 15/12 A3025 RMK A01 T01500120  RH  082%=      5-min Rain = 0
KNH1 201424Z 19002KT 15/12 A3025 RMK A01 T01510120  RH  082%=      5-min Rain = 0
KNH1 201425Z 19002KT 15/12 A3025 RMK A01 T01510119  RH  081%=      5-min Rain = 0
KNH1 201426Z 19002KT 15/12 A3025 RMK A01 T01510119  RH  081%=      5-min Rain = 0
KNH1 201427Z 19002KT 15/12 A3025 RMK A01 T01520120  RH  082%=      5-min Rain = 0
KNH1 201428Z 20001KT 15/12 A3025 RMK A01 T01520121  RH  081%=      5-min Rain = 0
KNH1 201429Z 20003KT 15/12 A3025 RMK A01 T01530122  RH  081%=      5-min Rain = 0
KNH1 201430Z 19003KT 15/12 A3025 RMK A01 T01540121  RH  081%=      5-min Rain = 0
KNH1 201431Z 19004KT 15/12 A3025 RMK A01 T01540121  RH  081%=      5-min Rain = 0
KNH1 201432Z 19003KT 15/12 A3025 RMK A01 T01540121  RH  080%=      5-min Rain = 0
KNH1 201433Z 17002KT 16/12 A3025 RMK A01 T01550120  RH  080%=      5-min Rain = 0
KNH1 201434Z 18003KT 16/12 A3025 RMK A01 T01550121  RH  080%=      5-min Rain = 0
KNH1 201435Z 18003KT 16/12 A3026 RMK A01 T01560122  RH  080%=      5-min Rain = 0
KNH1 201436Z 18003KT 16/12 A3026 RMK A01 T01570121  RH  079%=      5-min Rain = 0
KNH1 201437Z 18002KT 16/12 A3026 RMK A01 T01580121  RH  079%=      5-min Rain = 0
KNH1 201438Z 19003KT 16/12 A3026 RMK A01 T01590122  RH  079%=      5-min Rain = 0
KNH1 201439Z 19003KT 16/12 A3026 RMK A01 T01600121  RH  078%=      5-min Rain = 0
KNH1 201440Z 20004KT 16/12 A3026 RMK A01 T01590122  RH  078%=      5-min Rain = 0
KNH1 201441Z 20003KT 16/12 A3026 RMK A01 T01600121  RH  078%=      5-min Rain = 0
KNH1 201442Z 20004KT 16/12 A3026 RMK A01 T01590121  RH  078%=      5-min Rain = 0
KNH1 201443Z 20003KT 16/12 A3026 RMK A01 T01600121  RH  078%=      5-min Rain = 0
KNH1 201444Z 20004KT 16/12 A3026 RMK A01 T01600121  RH  078%=      5-min Rain = 0
KNH1 201445Z 19004KT 16/12 A3026 RMK A01 T01610121  RH  077%=      5-min Rain = 0
KNH1 201446Z 19003KT 16/12 A3026 RMK A01 T01620121  RH  077%=      5-min Rain = 0
KNH1 201447Z 18004KT 16/12 A3026 RMK A01 T01610121  RH  077%=      5-min Rain = 0
KNH1 201448Z 17004KT 16/12 A3026 RMK A01 T01610120  RH  077%=      5-min Rain = 0
KNH1 201449Z 18003KT 16/12 A3026 RMK A01 T01610120  RH  076%=      5-min Rain = 0
KNH1 201450Z 16003KT 16/12 A3026 RMK A01 T01620121  RH  077%=      5-min Rain = 0
KNH1 201451Z 18003KT 16/12 A3026 RMK A01 T01630121  RH  076%=      5-min Rain = 0
KNH1 201452Z 20003KT 16/12 A3026 RMK A01 T01640122  RH  076%=      5-min Rain = 0
KNH1 201453Z 18004KT 17/12 A3026 RMK A01 T01650123  RH  076%=      5-min Rain = 0
KNH1 201454Z 20005KT 17/12 A3026 RMK A01 T01670124  RH  076%=      5-min Rain = 0
KNH1 201455Z 18007KT 17/12 A3026 RMK A01 T01680124  RH  075%=      5-min Rain = 0
KNH1 201456Z 18007KT 17/12 A3026 RMK A01 T01680123  RH  075%=      5-min Rain = 0
KNH1 201457Z 17007KT 17/12 A3026 RMK A01 T01680123  RH  075%=      5-min Rain = 0
KNH1 201458Z 18006KT 17/12 A3026 RMK A01 T01690124  RH  075%=      5-min Rain = 0
KNH1 201459Z 19007KT 17/12 A3026 RMK A01 T01700124  RH  074%=      5-min Rain = 0
KNH1 201500Z 18006KT 17/12 A3026 RMK A01 T01710123  RH  074%=      5-min Rain = 0
KNH1 201501Z 19007KT 17/12 A3026 RMK A01 T01720124  RH  073%=      5-min Rain = 0
KNH1 201502Z 19006KT 17/13 A3026 RMK A01 T01730125  RH  073%=      5-min Rain = 0
KNH1 201503Z 19006KT 17/13 A3026 RMK A01 T01740125  RH  073%=      5-min Rain = 0
KNH1 201504Z 19006KT 18/13 A3026 RMK A01 T01760127  RH  073%=      5-min Rain = 0
KNH1 201505Z 19008KT 18/13 A3026 RMK A01 T01770125  RH  072%=      5-min Rain = 0
KNH1 201506Z 19008KT 18/12 A3026 RMK A01 T01760123  RH  071%=      5-min Rain = 0
KNH1 201507Z 19009KT 17/12 A3026 RMK A01 T01740123  RH  072%=      5-min Rain = 0
KNH1 201508Z 18009KT 17/12 A3026 RMK A01 T01740123  RH  072%=      5-min Rain = 0
KNH1 201509Z 19008KT 18/12 A3026 RMK A01 T01750123  RH  072%=      5-min Rain = 0
KNH1 201510Z 19010KT 18/12 A3026 RMK A01 T01760124  RH  071%=      5-min Rain = 0
KNH1 201511Z 19008KT 18/12 A3026 RMK A01 T01760123  RH  071%=      5-min Rain = 0
KNH1 201512Z 19009KT 18/12 A3026 RMK A01 T01760123  RH  071%=      5-min Rain = 0
KNH1 201513Z 19007KT 18/12 A3026 RMK A01 T01760124  RH  071%=      5-min Rain = 0
KNH1 201514Z 18008KT 18/13 A3026 RMK A01 T01770125  RH  072%=      5-min Rain = 0
KNH1 201515Z 19009KT 18/13 A3026 RMK A01 T01790125  RH  071%=      5-min Rain = 0
KNH1 201516Z 19009KT 18/12 A3027 RMK A01 T01790124  RH  070%=      5-min Rain = 0
KNH1 201517Z 18009KT 18/12 A3027 RMK A01 T01780124  RH  071%=      5-min Rain = 0
KNH1 201518Z 18009KT 18/12 A3027 RMK A01 T01780123  RH  070%=      5-min Rain = 0
KNH1 201519Z 19009KT 18/12 A3027 RMK A01 T01780124  RH  070%=      5-min Rain = 0
KNH1 201520Z 19008KT 18/12 A3027 RMK A01 T01780124  RH  070%=      5-min Rain = 0
KNH1 201521Z 18008KT 18/12 A3027 RMK A01 T01790124  RH  070%=      5-min Rain = 0
KNH1 201522Z 19008KT 18/12 A3027 RMK A01 T01790124  RH  070%=      5-min Rain = 0
KNH1 201523Z 18007KT 18/13 A3027 RMK A01 T01810125  RH  070%=      5-min Rain = 0
KNH1 201524Z 19007KT 18/12 A3027 RMK A01 T01810124  RH  069%=      5-min Rain = 0
KNH1 201525Z 19006KT 18/13 A3027 RMK A01 T01830127  RH  070%=      5-min Rain = 0
KNH1 201526Z 19007KT 18/13 A3027 RMK A01 T01840125  RH  068%=      5-min Rain = 0
KNH1 201527Z 19008KT 18/13 A3027 RMK A01 T01840125  RH  068%=      5-min Rain = 0
KNH1 201528Z 20010KT 19/13 A3027 RMK A01 T01850125  RH  068%=      5-min Rain = 0
KNH1 201529Z 22009KT 18/12 A3026 RMK A01 T01840124  RH  068%=      5-min Rain = 0
KNH1 201530Z 20007KT 18/12 A3026 RMK A01 T01830124  RH  069%=      5-min Rain = 0
KNH1 201531Z 21008KT 18/13 A3026 RMK A01 T01830125  RH  069%=      5-min Rain = 0
KNH1 201532Z 20010KT 19/13 A3026 RMK A01 T01850125  RH  068%=      5-min Rain = 0
KNH1 201533Z 20008KT 19/12 A3026 RMK A01 T01850124  RH  068%=      5-min Rain = 0
KNH1 201534Z 20008KT 19/13 A3026 RMK A01 T01850125  RH  068%=      5-min Rain = 0
KNH1 201535Z 21009KT 19/13 A3026 RMK A01 T01850126  RH  069%=      5-min Rain = 0
KNH1 201536Z 21009KT 19/13 A3026 RMK A01 T01860125  RH  067%=      5-min Rain = 0
KNH1 201537Z 20010KT 19/12 A3027 RMK A01 T01860124  RH  067%=      5-min Rain = 0
KNH1 201538Z 19009KT 19/13 A3027 RMK A01 T01860125  RH  068%=      5-min Rain = 0
KNH1 201539Z 19008KT 19/13 A3027 RMK A01 T01860125  RH  067%=      5-min Rain = 0
KNH1 201540Z 21009KT 19/13 A3027 RMK A01 T01870126  RH  068%=      5-min Rain = 0
KNH1 201541Z 20009KT 19/13 A3027 RMK A01 T01880125  RH  067%=      5-min Rain = 0
KNH1 201542Z 20007KT 19/12 A3027 RMK A01 T01870124  RH  067%=      5-min Rain = 0
KNH1 201543Z 21009KT 19/13 A3026 RMK A01 T01870126  RH  068%=      5-min Rain = 0
KNH1 201544Z 21010KT 19/13 A3026 RMK A01 T01880125  RH  067%=      5-min Rain = 0
KNH1 201545Z 21010KT 19/13 A3026 RMK A01 T01880125  RH  067%=      5-min Rain = 0
KNH1 201546Z 21009KT 19/12 A3026 RMK A01 T01880124  RH  066%=      5-min Rain = 0
KNH1 201547Z 21009KT 19/13 A3027 RMK A01 T01870125  RH  067%=      5-min Rain = 0
KNH1 201548Z 19009KT 19/12 A3027 RMK A01 T01880124  RH  067%=      5-min Rain = 0
KNH1 201549Z 20008KT 19/12 A3027 RMK A01 T01880124  RH  066%=      5-min Rain = 0
KNH1 201550Z 18008KT 19/12 A3027 RMK A01 T01880124  RH  066%=      5-min Rain = 0
KNH1 201551Z 19009KT 19/13 A3027 RMK A01 T01890125  RH  066%=      5-min Rain = 0
KNH1 201552Z 20007KT 19/13 A3027 RMK A01 T01900125  RH  066%=      5-min Rain = 0
KNH1 201553Z 21007KT 19/13 A3027 RMK A01 T01910126  RH  066%=      5-min Rain = 0
KNH1 201554Z 21008KT 19/13 A3027 RMK A01 T01920126  RH  065%=      5-min Rain = 0
KNH1 201555Z 19009KT 19/13 A3027 RMK A01 T01930126  RH  065%=      5-min Rain = 0
KNH1 201556Z 19007KT 19/13 A3027 RMK A01 T01930126  RH  065%=      5-min Rain = 0
KNH1 201557Z 19007KT 19/13 A3027 RMK A01 T01930125  RH  065%=      5-min Rain = 0
KNH1 201558Z 19008KT 19/13 A3027 RMK A01 T01940126  RH  065%=      5-min Rain = 0
KNH1 201559Z 19008KT 20/13 A3027 RMK A01 T01950126  RH  064%=      5-min Rain = 0
KNH1 201600Z 19007KT 20/13 A3027 RMK A01 T01950126  RH  064%=      5-min Rain = 0
KNH1 201601Z 19009KT 20/13 A3027 RMK A01 T01960125  RH  064%=      5-min Rain = 0
KNH1 201602Z 20006KT 20/13 A3027 RMK A01 T01960125  RH  064%=      5-min Rain = 0
KNH1 201603Z 21007KT 20/13 A3027 RMK A01 T01970126  RH  064%=      5-min Rain = 0
KNH1 201604Z 19006KT 20/13 A3027 RMK A01 T01970126  RH  063%=      5-min Rain = 0
KNH1 201605Z 21006KT 20/13 A3027 RMK A01 T01970126  RH  063%=      5-min Rain = 0
KNH1 201606Z 20007KT 20/13 A3027 RMK A01 T01970126  RH  063%=      5-min Rain = 0
KNH1 201607Z 20008KT 20/13 A3027 RMK A01 T01970126  RH  063%=      5-min Rain = 0
KNH1 201608Z 20009KT 20/13 A3027 RMK A01 T01970126  RH  063%=      5-min Rain = 0
KNH1 201609Z 20007KT 20/13 A3027 RMK A01 T01970125  RH  063%=      5-min Rain = 0
KNH1 201610Z 20008KT 20/13 A3027 RMK A01 T01980125  RH  063%=      5-min Rain = 0
KNH1 201611Z 21006KT 20/12 A3027 RMK A01 T01970124  RH  062%=      5-min Rain = 0
KNH1 201612Z 19008KT 20/13 A3027 RMK A01 T01980125  RH  063%=      5-min Rain = 0
KNH1 201613Z 20006KT 20/13 A3026 RMK A01 T01980125  RH  063%=      5-min Rain = 0
KNH1 201614Z 20007KT 20/13 A3026 RMK A01 T01990127  RH  063%=      5-min Rain = 0
KNH1 201615Z 20008KT 20/13 A3026 RMK A01 T02020126  RH  062%=      5-min Rain = 0
KNH1 201616Z 20008KT 20/13 A3026 RMK A01 T02020125  RH  061%=      5-min Rain = 0
KNH1 201617Z 20006KT 20/13 A3026 RMK A01 T02010125  RH  062%=      5-min Rain = 0
KNH1 201618Z 21008KT 20/13 A3026 RMK A01 T02010126  RH  062%=      5-min Rain = 0
KNH1 201619Z 21006KT 20/12 A3026 RMK A01 T02020124  RH  061%=      5-min Rain = 0
KNH1 201620Z 20006KT 20/12 A3026 RMK A01 T02020124  RH  061%=      5-min Rain = 0
KNH1 201621Z 20007KT 20/13 A3026 RMK A01 T02020125  RH  061%=      5-min Rain = 0
KNH1 201622Z 20007KT 20/12 A3026 RMK A01 T02020124  RH  061%=      5-min Rain = 0
KNH1 201623Z 20006KT 20/12 A3026 RMK A01 T02030124  RH  061%=      5-min Rain = 0
KNH1 201624Z 21006KT 20/12 A3026 RMK A01 T02020124  RH  061%=      5-min Rain = 0
KNH1 201625Z 20007KT 20/13 A3026 RMK A01 T02020125  RH  061%=      5-min Rain = 0
KNH1 201626Z 18007KT 20/13 A3026 RMK A01 T02030126  RH  061%=      5-min Rain = 0
KNH1 201627Z 18005KT 20/13 A3026 RMK A01 T02030125  RH  061%=      5-min Rain = 0
KNH1 201628Z 19005KT 20/13 A3026 RMK A01 T02030125  RH  061%=      5-min Rain = 0
KNH1 201629Z 16003KT 20/13 A3026 RMK A01 T02030126  RH  061%=      5-min Rain = 0
KNH1 201630Z 20002KT 20/13 A3026 RMK A01 T02030125  RH  061%=      5-min Rain = 0
KNH1 201631Z 21007KT 20/13 A3026 RMK A01 T02040125  RH  060%=      5-min Rain = 0
KNH1 201632Z 21008KT 21/13 A3026 RMK A01 T02060127  RH  061%=      5-min Rain = 0
KNH1 201633Z 20006KT 21/13 A3026 RMK A01 T02060126  RH  060%=      5-min Rain = 0
KNH1 201634Z 21003KT 21/13 A3026 RMK A01 T02060126  RH  060%=      5-min Rain = 0
KNH1 201635Z 19005KT 21/13 A3026 RMK A01 T02070128  RH  061%=      5-min Rain = 0
KNH1 201636Z 19005KT 21/12 A3026 RMK A01 T02090124  RH  058%=      5-min Rain = 0
KNH1 201637Z 21005KT 21/12 A3026 RMK A01 T02090123  RH  058%=      5-min Rain = 0
KNH1 201638Z 21004KT 21/12 A3026 RMK A01 T02080123  RH  058%=      5-min Rain = 0
KNH1 201639Z 17006KT 21/12 A3026 RMK A01 T02090124  RH  058%=      5-min Rain = 0
KNH1 201640Z 16005KT 21/12 A3026 RMK A01 T02100122  RH  057%=      5-min Rain = 0
KNH1 201641Z 17004KT 21/12 A3026 RMK A01 T02110123  RH  057%=      5-min Rain = 0
KNH1 201642Z 18003KT 21/13 A3026 RMK A01 T02120125  RH  057%=      5-min Rain = 0
KNH1 201643Z 18005KT 21/13 A3026 RMK A01 T02140125  RH  057%=      5-min Rain = 0
KNH1 201644Z 17005KT 21/12 A3026 RMK A01 T02130124  RH  057%=      5-min Rain = 0
KNH1 201645Z 17005KT 21/13 A3026 RMK A01 T02130125  RH  057%=      5-min Rain = 0
KNH1 201646Z 18006KT 21/12 A3026 RMK A01 T02140124  RH  057%=      5-min Rain = 0
KNH1 201647Z 19006KT 22/13 A3026 RMK A01 T02150125  RH  056%=      5-min Rain = 0
KNH1 201648Z 19006KT 22/12 A3026 RMK A01 T02150122  RH  056%=      5-min Rain = 0
KNH1 201649Z 20005KT 21/12 A3026 RMK A01 T02140123  RH  056%=      5-min Rain = 0
KNH1 201650Z 17003KT 21/12 A3026 RMK A01 T02140124  RH  056%=      5-min Rain = 0
KNH1 201651Z 19007KT 21/12 A3026 RMK A01 T02140124  RH  057%=      5-min Rain = 0
KNH1 201652Z 20007KT 22/12 A3026 RMK A01 T02160124  RH  056%=      5-min Rain = 0
KNH1 201653Z 16006KT 22/12 A3026 RMK A01 T02160124  RH  056%=      5-min Rain = 0
KNH1 201654Z 15004KT 22/13 A3026 RMK A01 T02160125  RH  056%=      5-min Rain = 0
KNH1 201655Z 17005KT 22/12 A3026 RMK A01 T02170124  RH  055%=      5-min Rain = 0
KNH1 201656Z 19006KT 22/12 A3026 RMK A01 T02180124  RH  055%=      5-min Rain = 0
KNH1 201657Z 19007KT 22/12 A3026 RMK A01 T02190122  RH  054%=      5-min Rain = 0
KNH1 201658Z 20004KT 22/12 A3026 RMK A01 T02160117  RH  053%=      5-min Rain = 0
KNH1 201659Z 21005KT 21/12 A3026 RMK A01 T02130119  RH  055%=      5-min Rain = 0
KNH1 201700Z 23005KT 21/12 A3026 RMK A01 T02130120  RH  055%=      5-min Rain = 0
KNH1 201701Z 22006KT 21/12 A3026 RMK A01 T02140120  RH  055%=      5-min Rain = 0
KNH1 201702Z 23004KT 21/12 A3026 RMK A01 T02140119  RH  055%=      5-min Rain = 0
KNH1 201703Z 23006KT 21/12 A3026 RMK A01 T02140123  RH  056%=      5-min Rain = 0
KNH1 201704Z 22004KT 22/12 A3026 RMK A01 T02160122  RH  055%=      5-min Rain = 0
KNH1 201705Z 21002KT 22/12 A3026 RMK A01 T02160122  RH  055%=      5-min Rain = 0
KNH1 201706Z 21002KT 22/12 A3026 RMK A01 T02170123  RH  055%=      5-min Rain = 0
KNH1 201707Z 19007KT 22/12 A3026 RMK A01 T02190124  RH  055%=      5-min Rain = 0
KNH1 201708Z 19007KT 22/12 A3026 RMK A01 T02190123  RH  054%=      5-min Rain = 0
KNH1 201709Z 19006KT 22/12 A3026 RMK A01 T02180124  RH  055%=      5-min Rain = 0
KNH1 201710Z 18005KT 22/12 A3026 RMK A01 T02180124  RH  055%=      5-min Rain = 0
KNH1 201711Z 20006KT 22/13 A3025 RMK A01 T02200125  RH  055%=      5-min Rain = 0
KNH1 201712Z 18004KT 22/12 A3026 RMK A01 T02190120  RH  054%=      5-min Rain = 0
KNH1 201713Z 17002KT 22/12 A3025 RMK A01 T02170122  RH  055%=      5-min Rain = 0
KNH1 201714Z 23002KT 22/12 A3025 RMK A01 T02170124  RH  055%=      5-min Rain = 0
KNH1 201715Z 26003KT 22/13 A3025 RMK A01 T02200125  RH  055%=      5-min Rain = 0
KNH1 201716Z 29002KT 22/12 A3025 RMK A01 T02210123  RH  054%=      5-min Rain = 0
KNH1 201717Z 32001KT 22/13 A3025 RMK A01 T02200125  RH  055%=      5-min Rain = 0
KNH1 201718Z 32001KT 22/12 A3025 RMK A01 T02200122  RH  054%=      5-min Rain = 0
KNH1 201719Z 23003KT 22/12 A3025 RMK A01 T02210122  RH  054%=      5-min Rain = 0
KNH1 201720Z 20006KT 22/13 A3025 RMK A01 T02230126  RH  054%=      5-min Rain = 0
KNH1 201721Z 21007KT 22/13 A3025 RMK A01 T02240125  RH  053%=      5-min Rain = 0
KNH1 201722Z 21007KT 23/13 A3025 RMK A01 T02260125  RH  053%=      5-min Rain = 0
KNH1 201723Z 22004KT 23/12 A3025 RMK A01 T02250123  RH  052%=      5-min Rain = 0
KNH1 201724Z 24003KT 22/12 A3025 RMK A01 T02230123  RH  053%=      5-min Rain = 0
KNH1 201725Z 22002KT 22/12 A3025 RMK A01 T02230123  RH  053%=      5-min Rain = 0
KNH1 201726Z 25001KT 22/12 A3025 RMK A01 T02230121  RH  053%=      5-min Rain = 0
KNH1 201727Z 25003KT 23/13 A3025 RMK A01 T02250125  RH  053%=      5-min Rain = 0
KNH1 201728Z 26003KT 23/12 A3025 RMK A01 T02260122  RH  052%=      5-min Rain = 0
KNH1 201729Z 26004KT 23/12 A3025 RMK A01 T02260124  RH  052%=      5-min Rain = 0
KNH1 201730Z 26004KT 23/12 A3025 RMK A01 T02270122  RH  051%=      5-min Rain = 0
KNH1 201731Z 26003KT 23/12 A3025 RMK A01 T02270122  RH  052%=      5-min Rain = 0
KNH1 201732Z 21005KT 23/12 A3025 RMK A01 T02270124  RH  052%=      5-min Rain = 0
KNH1 201733Z 20004KT 23/12 A3025 RMK A01 T02280123  RH  052%=      5-min Rain = 0
KNH1 201734Z 19003KT 23/12 A3025 RMK A01 T02270123  RH  052%=      5-min Rain = 0
KNH1 201735Z 14003KT 23/13 A3025 RMK A01 T02290125  RH  052%=      5-min Rain = 0
KNH1 201736Z 15002KT 23/12 A3025 RMK A01 T02310124  RH  051%=      5-min Rain = 0
KNH1 201737Z 14001KT 23/12 A3025 RMK A01 T02310124  RH  051%=      5-min Rain = 0
KNH1 201738Z 22002KT 23/13 A3025 RMK A01 T02330125  RH  051%=      5-min Rain = 0
KNH1 201739Z 22003KT 23/12 A3025 RMK A01 T02330124  RH  050%=      5-min Rain = 0
KNH1 201740Z 21002KT 23/12 A3025 RMK A01 T02320124  RH  051%=      5-min Rain = 0
KNH1 201741Z 19004KT 23/13 A3025 RMK A01 T02310125  RH  051%=      5-min Rain = 0
KNH1 201742Z 19004KT 23/12 A3025 RMK A01 T02320124  RH  051%=      5-min Rain = 0
KNH1 201743Z 19005KT 23/12 A3024 RMK A01 T02320122  RH  050%=      5-min Rain = 0
KNH1 201744Z 19003KT 23/12 A3024 RMK A01 T02320120  RH  049%=      5-min Rain = 0
KNH1 201745Z 18003KT 23/12 A3024 RMK A01 T02300119  RH  050%=      5-min Rain = 0
KNH1 201746Z 13005KT 23/12 A3024 RMK A01 T02300120  RH  050%=      5-min Rain = 0
KNH1 201747Z 11004KT 23/12 A3024 RMK A01 T02310120  RH  050%=      5-min Rain = 0
KNH1 201748Z 11003KT 23/12 A3024 RMK A01 T02310120  RH  050%=      5-min Rain = 0
KNH1 201749Z 11004KT 23/12 A3024 RMK A01 T02320122  RH  050%=      5-min Rain = 0
KNH1 201750Z 12001KT 23/12 A3024 RMK A01 T02330124  RH  050%=      5-min Rain = 0
KNH1 201751Z 30003KT 24/12 A3024 RMK A01 T02350122  RH  049%=      5-min Rain = 0
KNH1 201752Z 19003KT 24/12 A3024 RMK A01 T02360123  RH  049%=      5-min Rain = 0
KNH1 201753Z 20004KT 24/12 A3024 RMK A01 T02360123  RH  049%=      5-min Rain = 0
KNH1 201754Z 21004KT 24/12 A3024 RMK A01 T02370121  RH  048%=      5-min Rain = 0
KNH1 201755Z 18004KT 23/12 A3024 RMK A01 T02340122  RH  049%=      5-min Rain = 0
KNH1 201756Z 19003KT 23/12 A3024 RMK A01 T02340121  RH  049%=      5-min Rain = 0
KNH1 201757Z 19003KT 23/12 A3024 RMK A01 T02340121  RH  049%=      5-min Rain = 0
KNH1 201758Z 20004KT 24/12 A3024 RMK A01 T02350122  RH  049%=      5-min Rain = 0
KNH1 201759Z 18002KT 24/12 A3024 RMK A01 T02370122  RH  048%=      5-min Rain = 0
KNH1 201800Z 26002KT 24/12 A3024 RMK A01 T02380120  RH  047%=      5-min Rain = 0
KNH1 201801Z 24001KT 24/12 A3024 RMK A01 T02390120  RH  047%=      5-min Rain = 0
KNH1 201802Z 32001KT 24/12 A3024 RMK A01 T02410119  RH  047%=      5-min Rain = 0
KNH1 201803Z 30002KT 24/12 A3024 RMK A01 T02410120  RH  047%=      5-min Rain = 0
KNH1 201804Z 33002KT 24/12 A3024 RMK A01 T02400121  RH  047%=      5-min Rain = 0
KNH1 201805Z 32001KT 24/12 A3024 RMK A01 T02390121  RH  047%=      5-min Rain = 0
KNH1 201806Z 12001KT 24/12 A3024 RMK A01 T02390121  RH  047%=      5-min Rain = 0
KNH1 201807Z 14004KT 24/12 A3024 RMK A01 T02410122  RH  047%=      5-min Rain = 0
KNH1 201808Z 13004KT 24/12 A3024 RMK A01 T02430122  RH  047%=      5-min Rain = 0
KNH1 201809Z 16005KT 24/12 A3023 RMK A01 T02440121  RH  046%=      5-min Rain = 0
KNH1 201810Z 18004KT 24/12 A3023 RMK A01 T02440118  RH  045%=      5-min Rain = 0
KNH1 201811Z 21003KT 24/12 A3023 RMK A01 T02410115  RH  045%=      5-min Rain = 0
KNH1 201812Z 22003KT 24/12 A3023 RMK A01 T02380115  RH  046%=      5-min Rain = 0
KNH1 201813Z 19003KT 24/12 A3023 RMK A01 T02370116  RH  046%=      5-min Rain = 0
KNH1 201814Z 14004KT 24/12 A3023 RMK A01 T02370116  RH  046%=      5-min Rain = 0
KNH1 201815Z 13003KT 24/12 A3023 RMK A01 T02380116  RH  046%=      5-min Rain = 0
KNH1 201816Z 15004KT 24/12 A3023 RMK A01 T02390116  RH  046%=      5-min Rain = 0
KNH1 201817Z 16004KT 24/12 A3023 RMK A01 T02400118  RH  046%=      5-min Rain = 0
KNH1 201818Z 16004KT 24/12 A3023 RMK A01 T02430120  RH  046%=      5-min Rain = 0
KNH1 201819Z 16005KT 24/12 A3023 RMK A01 T02440117  RH  045%=      5-min Rain = 0
KNH1 201820Z 14003KT 24/12 A3023 RMK A01 T02430118  RH  045%=      5-min Rain = 0
KNH1 201821Z 17003KT 24/12 A3023 RMK A01 T02430118  RH  045%=      5-min Rain = 0
KNH1 201822Z 15004KT 24/12 A3023 RMK A01 T02440116  RH  045%=      5-min Rain = 0
KNH1 201823Z 12005KT 24/12 A3023 RMK A01 T02430117  RH  045%=      5-min Rain = 0
KNH1 201824Z 12005KT 25/12 A3023 RMK A01 T02460118  RH  045%=      5-min Rain = 0
KNH1 201825Z 12004KT 25/12 A3023 RMK A01 T02480118  RH  044%=      5-min Rain = 0
KNH1 201826Z 09003KT 25/12 A3023 RMK A01 T02490116  RH  043%=      5-min Rain = 0
KNH1 201827Z 08002KT 25/12 A3023 RMK A01 T02480115  RH  043%=      5-min Rain = 0
KNH1 201828Z 15003KT 25/11 A3023 RMK A01 T02460114  RH  044%=      5-min Rain = 0
KNH1 201829Z 12003KT 25/12 A3023 RMK A01 T02450115  RH  044%=      5-min Rain = 0
KNH1 201830Z 11002KT 24/11 A3023 RMK A01 T02440113  RH  044%=      5-min Rain = 0
KNH1 201831Z 17003KT 24/11 A3023 RMK A01 T02440112  RH  044%=      5-min Rain = 0
KNH1 201832Z 20004KT 24/11 A3023 RMK A01 T02430108  RH  043%=      5-min Rain = 0
KNH1 201833Z 22003KT 24/11 A3023 RMK A01 T02430107  RH  042%=      5-min Rain = 0
KNH1 201834Z 19003KT 24/11 A3023 RMK A01 T02440108  RH  042%=      5-min Rain = 0
KNH1 201835Z 19007KT 24/11 A3023 RMK A01 T02440109  RH  043%=      5-min Rain = 0
KNH1 201836Z 24004KT 24/11 A3023 RMK A01 T02420107  RH  043%=      5-min Rain = 0
KNH1 201837Z 20005KT 24/11 A3023 RMK A01 T02420112  RH  044%=      5-min Rain = 0
KNH1 201838Z 22003KT 24/11 A3022 RMK A01 T02430109  RH  043%=      5-min Rain = 0
KNH1 201839Z 21005KT 24/11 A3022 RMK A01 T02430106  RH  042%=      5-min Rain = 0
KNH1 201840Z 22003KT 24/11 A3022 RMK A01 T02410105  RH  042%=      5-min Rain = 0
KNH1 201841Z 19004KT 24/11 A3022 RMK A01 T02420107  RH  043%=      5-min Rain = 0
KNH1 201842Z 19003KT 24/11 A3022 RMK A01 T02440110  RH  043%=      5-min Rain = 0
KNH1 201843Z 16003G9KT 25/11 A3022 RMK A01 T02460114  RH  044%=      5-min Rain = 0
KNH1 201844Z 15006KT 25/11 A3022 RMK A01 T02490113  RH  042%=      5-min Rain = 0
KNH1 201845Z 18004KT 25/11 A3022 RMK A01 T02510110  RH  041%=      5-min Rain = 0
KNH1 201846Z 16005KT 25/11 A3022 RMK A01 T02510111  RH  041%=      5-min Rain = 0
KNH1 201847Z 15004KT 25/11 A3022 RMK A01 T02500106  RH  040%=      5-min Rain = 0
KNH1 201848Z 14002KT 25/11 A3022 RMK A01 T02490107  RH  041%=      5-min Rain = 0
KNH1 201849Z 10003KT 25/11 A3022 RMK A01 T02480107  RH  041%=      5-min Rain = 0
KNH1 201850Z 10001KT 25/10 A3022 RMK A01 T02470103  RH  040%=      5-min Rain = 0
KNH1 201851Z 18002KT 25/11 A3022 RMK A01 T02450106  RH  042%=      5-min Rain = 0
KNH1 201852Z 15003KT 25/11 A3022 RMK A01 T02460107  RH  042%=      5-min Rain = 0
KNH1 201853Z 15006KT 25/11 A3022 RMK A01 T02480108  RH  041%=      5-min Rain = 0
KNH1 201854Z 15004KT 25/11 A3022 RMK A01 T02490106  RH  041%=      5-min Rain = 0
KNH1 201855Z 14005KT 25/11 A3022 RMK A01 T02500107  RH  041%=      5-min Rain = 0
KNH1 201856Z 14006KT 25/10 A3022 RMK A01 T02530104  RH  039%=      5-min Rain = 0
KNH1 201857Z 14005KT 25/10 A3022 RMK A01 T02530099  RH  038%=      5-min Rain = 0
KNH1 201858Z 15004KT 25/10 A3022 RMK A01 T02530097  RH  037%=      5-min Rain = 0
KNH1 201859Z 13004KT 25/10 A3022 RMK A01 T02520101  RH  039%=      5-min Rain = 0
KNH1 201900Z 10003KT 25/09 A3021 RMK A01 T02530094  RH  037%=      5-min Rain = 0
KNH1 201901Z 09002KT 25/09 A3021 RMK A01 T02520093  RH  036%=      5-min Rain = 0
KNH1 201902Z 11003KT 25/09 A3021 RMK A01 T02510093  RH  037%=      5-min Rain = 0
KNH1 201903Z 09004KT 25/11 A3021 RMK A01 T02520105  RH  039%=      5-min Rain = 0
KNH1 201904Z 08005KT 25/11 A3021 RMK A01 T02530107  RH  040%=      5-min Rain = 0
KNH1 201905Z 09005KT 25/10 A3021 RMK A01 T02520103  RH  039%=      5-min Rain = 0
KNH1 201906Z 09003KT 25/10 A3021 RMK A01 T02490104  RH  040%=      5-min Rain = 0
KNH1 201907Z 09005KT 25/10 A3021 RMK A01 T02490103  RH  040%=      5-min Rain = 0
KNH1 201908Z 07004KT 25/10 A3021 RMK A01 T02520103  RH  039%=      5-min Rain = 0
KNH1 201909Z 15005KT 25/10 A3021 RMK A01 T02530102  RH  039%=      5-min Rain = 0
KNH1 201910Z 19006KT 26/10 A3021 RMK A01 T02550101  RH  038%=      5-min Rain = 0
KNH1 201911Z 19006KT 26/10 A3021 RMK A01 T02570098  RH  037%=      5-min Rain = 0
KNH1 201912Z 20004KT 26/10 A3021 RMK A01 T02550098  RH  037%=      5-min Rain = 0
KNH1 201913Z 18004KT 25/10 A3021 RMK A01 T02540101  RH  038%=      5-min Rain = 0
KNH1 201914Z 16005KT 25/10 A3021 RMK A01 T02540100  RH  038%=      5-min Rain = 0
KNH1 201915Z 18006KT 26/10 A3021 RMK A01 T02550101  RH  038%=      5-min Rain = 0
KNH1 201916Z 18005KT 26/10 A3021 RMK A01 T02560101  RH  038%=      5-min Rain = 0
KNH1 201917Z 16004KT 26/10 A3021 RMK A01 T02550100  RH  038%=      5-min Rain = 0
KNH1 201918Z 19003KT 25/10 A302 RMK A01 T02530101  RH  038%=      5-min Rain = 0
KNH1 201919Z 18003KT 25/10 A302 RMK A01 T02520102  RH  039%=      5-min Rain = 0
KNH1 201920Z 15003KT 25/11 A302 RMK A01 T02520105  RH  040%=      5-min Rain = 0
KNH1 201921Z 15004KT 26/11 A302 RMK A01 T02550108  RH  040%=      5-min Rain = 0
KNH1 201922Z 12005KT 26/11 A302 RMK A01 T02570109  RH  040%=      5-min Rain = 0
KNH1 201923Z 12006KT 26/11 A302 RMK A01 T02600111  RH  039%=      5-min Rain = 0
KNH1 201924Z 12003KT 26/11 A302 RMK A01 T02600111  RH  039%=      5-min Rain = 0
KNH1 201925Z 11005KT 26/11 A302 RMK A01 T02580111  RH  040%=      5-min Rain = 0
KNH1 201926Z 11005KT 26/11 A302 RMK A01 T02580112  RH  040%=      5-min Rain = 0
KNH1 201927Z 13007KT 26/11 A302 RMK A01 T02590114  RH  040%=      5-min Rain = 0
KNH1 201928Z 13006KT 26/11 A302 RMK A01 T02620112  RH  039%=      5-min Rain = 0
KNH1 201929Z 14007KT 26/11 A302 RMK A01 T02630111  RH  039%=      5-min Rain = 0
KNH1 201930Z 14006KT 26/11 A302 RMK A01 T02610111  RH  039%=      5-min Rain = 0
KNH1 201931Z 15006KT 26/11 A302 RMK A01 T02610109  RH  039%=      5-min Rain = 0
KNH1 201932Z 18004KT 26/11 A302 RMK A01 T02590107  RH  038%=      5-min Rain = 0
KNH1 201933Z 19002KT 26/11 A302 RMK A01 T02570109  RH  039%=      5-min Rain = 0
KNH1 201934Z 08003KT 26/11 A302 RMK A01 T02590112  RH  040%=      5-min Rain = 0
KNH1 201935Z 09004KT 26/11 A302 RMK A01 T02610110  RH  039%=      5-min Rain = 0
KNH1 201936Z 12006KT 26/11 A302 RMK A01 T02610110  RH  039%=      5-min Rain = 0
KNH1 201937Z 11004KT 26/11 A302 RMK A01 T02590109  RH  039%=      5-min Rain = 0
KNH1 201938Z 13002KT 26/11 A3019 RMK A01 T02570108  RH  039%=      5-min Rain = 0
KNH1 201939Z 10004KT 26/11 A3019 RMK A01 T02560109  RH  040%=      5-min Rain = 0
KNH1 201940Z 12005KT 26/11 A3019 RMK A01 T02570109  RH  040%=      5-min Rain = 0
KNH1 201941Z 14004KT 26/11 A3019 RMK A01 T02600110  RH  039%=      5-min Rain = 0
KNH1 201942Z 20003KT 26/11 A3019 RMK A01 T02630108  RH  038%=      5-min Rain = 0
KNH1 201943Z 17002KT 27/11 A3019 RMK A01 T02650106  RH  037%=      5-min Rain = 0
KNH1 201944Z 14002KT 27/11 A3019 RMK A01 T02660108  RH  037%=      5-min Rain = 0
KNH1 201945Z 12004KT 27/11 A3019 RMK A01 T02670106  RH  036%=      5-min Rain = 0
KNH1 201946Z 08004KT 27/11 A3019 RMK A01 T02670107  RH  037%=      5-min Rain = 0
KNH1 201947Z 12004KT 27/11 A3019 RMK A01 T02680106  RH  036%=      5-min Rain = 0
KNH1 201948Z 07003KT 27/10 A3019 RMK A01 T02670103  RH  036%=      5-min Rain = 0
KNH1 201949Z 07003KT 26/10 A3019 RMK A01 T02640102  RH  036%=      5-min Rain = 0
KNH1 201950Z 06005KT 26/10 A3019 RMK A01 T02610101  RH  037%=      5-min Rain = 0
KNH1 201951Z 07006KT 26/10 A3019 RMK A01 T02590101  RH  037%=      5-min Rain = 0
KNH1 201952Z 12006KT 26/11 A3019 RMK A01 T02580106  RH  038%=      5-min Rain = 0
KNH1 201953Z 14004KT 26/11 A3019 RMK A01 T02630110  RH  038%=      5-min Rain = 0
KNH1 201954Z 13004KT 27/11 A3019 RMK A01 T02670109  RH  037%=      5-min Rain = 0
KNH1 201955Z 12003KT 27/11 A3019 RMK A01 T02690109  RH  037%=      5-min Rain = 0
KNH1 201956Z 13005KT 27/11 A3019 RMK A01 T02700111  RH  037%=      5-min Rain = 0
KNH1 201957Z 13004KT 27/11 A3019 RMK A01 T02720109  RH  036%=      5-min Rain = 0
KNH1 201958Z 14005KT 27/11 A3019 RMK A01 T02740112  RH  036%=      5-min Rain = 0
KNH1 201959Z 14004KT 27/11 A3019 RMK A01 T02740105  RH  035%=      5-min Rain = 0
KNH1 202000Z 13003KT 27/10 A3019 RMK A01 T02700104  RH  035%=      5-min Rain = 0
KNH1 202001Z 14004KT 27/11 A3019 RMK A01 T02680106  RH  036%=      5-min Rain = 0
KNH1 202002Z 13004KT 27/11 A3019 RMK A01 T02680106  RH  036%=      5-min Rain = 0
KNH1 202003Z 16006KT 27/10 A3019 RMK A01 T02680103  RH  036%=      5-min Rain = 0
KNH1 202004Z 17005KT 27/10 A3019 RMK A01 T02650102  RH  036%=      5-min Rain = 0
KNH1 202005Z 15005KT 26/10 A3019 RMK A01 T02640103  RH  036%=      5-min Rain = 0
KNH1 202006Z 15004KT 26/10 A3019 RMK A01 T02640103  RH  036%=      5-min Rain = 0
KNH1 202007Z 16003KT 26/10 A3019 RMK A01 T02640101  RH  036%=      5-min Rain = 0
KNH1 202008Z 13003KT 26/10 A3019 RMK A01 T02640102  RH  036%=      5-min Rain = 0
KNH1 202009Z 14002KT 27/10 A3018 RMK A01 T02660097  RH  035%=      5-min Rain = 0
KNH1 202010Z 12002KT 27/10 A3018 RMK A01 T02670098  RH  035%=      5-min Rain = 0
KNH1 202011Z 11003KT 27/10 A3018 RMK A01 T02670100  RH  035%=      5-min Rain = 0
KNH1 202012Z 10005KT 27/10 A3018 RMK A01 T02670100  RH  035%=      5-min Rain = 0
KNH1 202013Z 12006KT 27/10 A3018 RMK A01 T02660099  RH  035%=      5-min Rain = 0
KNH1 202014Z 12004KT 27/10 A3018 RMK A01 T02660097  RH  035%=      5-min Rain = 0
KNH1 202015Z 13004KT 27/09 A3018 RMK A01 T02650094  RH  034%=      5-min Rain = 0
KNH1 202016Z 15006KT 26/10 A3018 RMK A01 T02640097  RH  035%=      5-min Rain = 0
KNH1 202017Z 13005KT 27/10 A3018 RMK A01 T02660099  RH  035%=      5-min Rain = 0
KNH1 202018Z 12002KT 27/10 A3018 RMK A01 T02670097  RH  034%=      5-min Rain = 0
KNH1 202019Z 19003KT 27/10 A3018 RMK A01 T02680097  RH  034%=      5-min Rain = 0
KNH1 202020Z 17006KT 27/10 A3018 RMK A01 T02690095  RH  033%=      5-min Rain = 0
KNH1 202021Z 14005KT 27/10 A3018 RMK A01 T02670097  RH  034%=      5-min Rain = 0
KNH1 202022Z 11003KT 27/09 A3018 RMK A01 T02680092  RH  033%=      5-min Rain = 0
KNH1 202023Z 11004KT 27/09 A3018 RMK A01 T02670094  RH  034%=      5-min Rain = 0
KNH1 202024Z 12004KT 27/09 A3018 RMK A01 T02660092  RH  033%=      5-min Rain = 0
KNH1 202025Z 12005KT 27/09 A3018 RMK A01 T02670094  RH  034%=      5-min Rain = 0
KNH1 202026Z 11008KT 27/09 A3018 RMK A01 T02690091  RH  033%=      5-min Rain = 0
KNH1 202027Z 09006KT 27/08 A3018 RMK A01 T02700082  RH  030%=      5-min Rain = 0
KNH1 202028Z 09005KT 27/08 A3018 RMK A01 T02680082  RH  031%=      5-min Rain = 0
KNH1 202029Z 07004KT 26/08 A3018 RMK A01 T02640084  RH  032%=      5-min Rain = 0
KNH1 202030Z 09004KT 26/08 A3018 RMK A01 T02630084  RH  032%=      5-min Rain = 0
KNH1 202031Z 09003KT 26/08 A3018 RMK A01 T02620084  RH  032%=      5-min Rain = 0
KNH1 202032Z 15006KT 26/09 A3018 RMK A01 T02640090  RH  033%=      5-min Rain = 0
KNH1 202033Z 13007KT 27/09 A3018 RMK A01 T02660091  RH  033%=      5-min Rain = 0
KNH1 202034Z 12008KT 27/10 A3018 RMK A01 T02690095  RH  034%=      5-min Rain = 0
KNH1 202035Z 11005KT 27/10 A3018 RMK A01 T02710095  RH  033%=      5-min Rain = 0
KNH1 202036Z 10006KT 27/10 A3017 RMK A01 T02720097  RH  033%=      5-min Rain = 0
KNH1 202037Z 14007KT 27/10 A3017 RMK A01 T02730098  RH  033%=      5-min Rain = 0
KNH1 202038Z 16007KT 27/09 A3018 RMK A01 T02730092  RH  032%=      5-min Rain = 0
KNH1 202039Z 15005KT 27/10 A3018 RMK A01 T02740096  RH  033%=      5-min Rain = 0
KNH1 202040Z 13008KT 27/10 A3018 RMK A01 T02740095  RH  033%=      5-min Rain = 0
KNH1 202041Z 15006KT 27/10 A3018 RMK A01 T02740095  RH  033%=      5-min Rain = 0
KNH1 202042Z 15006KT 27/09 A3018 RMK A01 T02740090  RH  031%=      5-min Rain = 0
KNH1 202043Z 13004KT 27/09 A3018 RMK A01 T02720092  RH  032%=      5-min Rain = 0
KNH1 202044Z 13002KT 27/09 A3017 RMK A01 T02720091  RH  032%=      5-min Rain = 0
KNH1 202045Z 12002KT 27/09 A3017 RMK A01 T02720091  RH  032%=      5-min Rain = 0
KNH1 202046Z 09002KT 27/09 A3017 RMK A01 T02710094  RH  033%=      5-min Rain = 0
KNH1 202047Z 12003KT 27/09 A3017 RMK A01 T02700092  RH  033%=      5-min Rain = 0
KNH1 202048Z 13008KT 27/09 A3017 RMK A01 T02700091  RH  032%=      5-min Rain = 0
KNH1 202049Z 12006KT 27/09 A3017 RMK A01 T02710090  RH  032%=      5-min Rain = 0
KNH1 202050Z 11006KT 27/08 A3017 RMK A01 T02710084  RH  031%=      5-min Rain = 0
KNH1 202051Z 13004KT 27/09 A3017 RMK A01 T02690087  RH  032%=      5-min Rain = 0
KNH1 202052Z 13004G9KT 27/09 A3017 RMK A01 T02700088  RH  032%=      5-min Rain = 0
KNH1 202053Z 13005KT 27/09 A3017 RMK A01 T02730088  RH  031%=      5-min Rain = 0
KNH1 202054Z 13005KT 28/09 A3017 RMK A01 T02750090  RH  031%=      5-min Rain = 0
KNH1 202055Z 13004KT 28/09 A3017 RMK A01 T02760089  RH  031%=      5-min Rain = 0
KNH1 202056Z 13005KT 28/09 A3017 RMK A01 T02760089  RH  031%=      5-min Rain = 0
KNH1 202057Z 14002KT 28/09 A3017 RMK A01 T02760092  RH  032%=      5-min Rain = 0
KNH1 202058Z 18003KT 28/09 A3017 RMK A01 T02760090  RH  031%=      5-min Rain = 0
KNH1 202059Z 14004KT 27/09 A3017 RMK A01 T02740090  RH  031%=      5-min Rain = 0
KNH1 202100Z 14007KT 27/10 A3017 RMK A01 T02730095  RH  033%=      5-min Rain = 0
KNH1 202101Z 15007KT 27/09 A3017 RMK A01 T02730094  RH  032%=      5-min Rain = 0
KNH1 202102Z 17004KT 27/09 A3017 RMK A01 T02710091  RH  032%=      5-min Rain = 0
KNH1 202103Z 14003KT 27/09 A3017 RMK A01 T02690092  RH  033%=      5-min Rain = 0
KNH1 202104Z 12004KT 27/10 A3017 RMK A01 T02680097  RH  034%=      5-min Rain = 0
KNH1 202105Z 12005KT 27/10 A3017 RMK A01 T02700100  RH  034%=      5-min Rain = 0
KNH1 202106Z 11007KT 27/10 A3017 RMK A01 T02720102  RH  034%=      5-min Rain = 0
KNH1 202107Z 09005KT 27/10 A3017 RMK A01 T02730100  RH  034%=      5-min Rain = 0
KNH1 202108Z 11003KT 27/10 A3017 RMK A01 T02730100  RH  034%=      5-min Rain = 0
KNH1 202109Z 13006KT 27/10 A3017 RMK A01 T02720100  RH  034%=      5-min Rain = 0
KNH1 202110Z 12005KT 27/10 A3017 RMK A01 T02720100  RH  034%=      5-min Rain = 0
KNH1 202111Z 12005KT 27/10 A3017 RMK A01 T02730098  RH  034%=      5-min Rain = 0
KNH1 202112Z 15004KT 27/10 A3017 RMK A01 T02730099  RH  033%=      5-min Rain = 0
KNH1 202113Z 15004KT 28/09 A3017 RMK A01 T02750090  RH  031%=      5-min Rain = 0
KNH1 202114Z 18006KT 28/09 A3017 RMK A01 T02760090  RH  031%=      5-min Rain = 0
KNH1 202115Z 17008KT 28/08 A3017 RMK A01 T02770083  RH  029%=      5-min Rain = 0
KNH1 202116Z 16007KT 28/08 A3017 RMK A01 T02750079  RH  029%=      5-min Rain = 0
KNH1 202117Z 18005KT 28/08 A3017 RMK A01 T02750081  RH  029%=      5-min Rain = 0
KNH1 202118Z 17006KT 28/08 A3017 RMK A01 T02760083  RH  030%=      5-min Rain = 0
KNH1 202119Z 15006KT 27/09 A3017 RMK A01 T02740087  RH  031%=      5-min Rain = 0
KNH1 202120Z 12004KT 27/09 A3017 RMK A01 T02730094  RH  032%=      5-min Rain = 0
KNH1 202121Z 12004KT 27/10 A3017 RMK A01 T02740095  RH  033%=      5-min Rain = 0
KNH1 202122Z 15007KT 28/10 A3017 RMK A01 T02750097  RH  033%=      5-min Rain = 0
KNH1 202123Z 14006G11KT 28/10 A3017 RMK A01 T02770099  RH  033%=      5-min Rain = 0
KNH1 202124Z 12006KT 28/10 A3017 RMK A01 T02790099  RH  032%=      5-min Rain = 0
KNH1 202125Z 13007KT 28/10 A3017 RMK A01 T02790097  RH  032%=      5-min Rain = 0
KNH1 202126Z 12007KT 28/10 A3017 RMK A01 T02800098  RH  032%=      5-min Rain = 0
KNH1 202127Z 13007KT 28/10 A3017 RMK A01 T02780096  RH  032%=      5-min Rain = 0
KNH1 202128Z 14006KT 28/10 A3017 RMK A01 T02760095  RH  032%=      5-min Rain = 0
KNH1 202129Z 12005KT 28/10 A3017 RMK A01 T02760095  RH  032%=      5-min Rain = 0
KNH1 202130Z 12005KT 28/10 A3017 RMK A01 T02750097  RH  033%=      5-min Rain = 0
KNH1 202131Z 10005KT 28/10 A3017 RMK A01 T02750097  RH  033%=      5-min Rain = 0
KNH1 202132Z 12008KT 28/10 A3017 RMK A01 T02750096  RH  032%=      5-min Rain = 0
KNH1 202133Z 11007KT 28/10 A3017 RMK A01 T02750095  RH  032%=      5-min Rain = 0
KNH1 202134Z 13004KT 27/10 A3017 RMK A01 T02740097  RH  033%=      5-min Rain = 0
KNH1 202135Z 15005KT 28/10 A3017 RMK A01 T02750095  RH  032%=      5-min Rain = 0
KNH1 202136Z 16007KT 28/09 A3017 RMK A01 T02760092  RH  032%=      5-min Rain = 0
KNH1 202137Z 16008KT 28/09 A3017 RMK A01 T02760090  RH  031%=      5-min Rain = 0
KNH1 202138Z 16007KT 28/09 A3017 RMK A01 T02750089  RH  031%=      5-min Rain = 0
KNH1 202139Z 14004KT 27/09 A3017 RMK A01 T02740089  RH  031%=      5-min Rain = 0
KNH1 202140Z 16005KT 27/09 A3017 RMK A01 T02730090  RH  032%=      5-min Rain = 0
KNH1 202141Z 17007KT 27/09 A3017 RMK A01 T02740087  RH  031%=      5-min Rain = 0
KNH1 202142Z 14006KT 27/09 A3017 RMK A01 T02730090  RH  031%=      5-min Rain = 0
KNH1 202143Z 13005KT 27/09 A3017 RMK A01 T02740094  RH  032%=      5-min Rain = 0
KNH1 202144Z 13007KT 28/09 A3017 RMK A01 T02750094  RH  032%=      5-min Rain = 0
KNH1 202145Z 13006KT 28/09 A3017 RMK A01 T02750093  RH  032%=      5-min Rain = 0
KNH1 202146Z 11005KT 28/10 A3017 RMK A01 T02750095  RH  032%=      5-min Rain = 0
KNH1 202147Z 13004KT 27/10 A3017 RMK A01 T02730098  RH  033%=      5-min Rain = 0
KNH1 202148Z 13003KT 27/10 A3016 RMK A01 T02730097  RH  033%=      5-min Rain = 0
KNH1 202149Z 11004KT 27/10 A3016 RMK A01 T02730096  RH  033%=      5-min Rain = 0
KNH1 202150Z 15004KT 27/10 A3016 RMK A01 T02730099  RH  033%=      5-min Rain = 0
KNH1 202151Z 16006KT 27/10 A3016 RMK A01 T02740101  RH  034%=      5-min Rain = 0
KNH1 202152Z 18005KT 28/10 A3016 RMK A01 T02750102  RH  034%=      5-min Rain = 0
KNH1 202153Z 18008KT 28/10 A3016 RMK A01 T02760102  RH  034%=      5-min Rain = 0
KNH1 202154Z 18006KT 27/10 A3016 RMK A01 T02740099  RH  033%=      5-min Rain = 0
KNH1 202155Z 18005KT 27/10 A3016 RMK A01 T02710100  RH  034%=      5-min Rain = 0
KNH1 202156Z 16004KT 27/10 A3016 RMK A01 T02690102  RH  035%=      5-min Rain = 0
KNH1 202157Z 16004KT 27/11 A3016 RMK A01 T02700106  RH  036%=      5-min Rain = 0
KNH1 202158Z 14005KT 27/11 A3016 RMK A01 T02730107  RH  036%=      5-min Rain = 0
KNH1 202159Z 14009KT 28/11 A3016 RMK A01 T02750106  RH  035%=      5-min Rain = 0
KNH1 202200Z 15007KT 28/11 A3016 RMK A01 T02750105  RH  034%=      5-min Rain = 0
KNH1 202201Z 12006KT 28/11 A3016 RMK A01 T02750107  RH  035%=      5-min Rain = 0
KNH1 202202Z 15006KT 28/11 A3016 RMK A01 T02750106  RH  035%=      5-min Rain = 0
KNH1 202203Z 16007KT 28/10 A3016 RMK A01 T02750104  RH  034%=      5-min Rain = 0
KNH1 202204Z 16005KT 27/10 A3016 RMK A01 T02740100  RH  034%=      5-min Rain = 0
KNH1 202205Z 14004KT 27/10 A3016 RMK A01 T02720102  RH  034%=      5-min Rain = 0
KNH1 202206Z 11007KT 27/11 A3016 RMK A01 T02720105  RH  035%=      5-min Rain = 0
KNH1 202207Z 11006KT 27/10 A3016 RMK A01 T02740102  RH  034%=      5-min Rain = 0
KNH1 202208Z 13004KT 27/10 A3016 RMK A01 T02730101  RH  034%=      5-min Rain = 0
KNH1 202209Z 17004KT 27/10 A3016 RMK A01 T02730100  RH  034%=      5-min Rain = 0
KNH1 202210Z 14005KT 27/10 A3016 RMK A01 T02720102  RH  034%=      5-min Rain = 0
KNH1 202211Z 13006KT 27/11 A3016 RMK A01 T02730105  RH  035%=      5-min Rain = 0
KNH1 202212Z 14004KT 27/11 A3016 RMK A01 T02740111  RH  036%=      5-min Rain = 0
KNH1 202213Z 15006KT 28/11 A3016 RMK A01 T02760109  RH  035%=      5-min Rain = 0
KNH1 202214Z 12007KT 28/11 A3016 RMK A01 T02760110  RH  035%=      5-min Rain = 0
KNH1 202215Z 12007KT 28/11 A3016 RMK A01 T02750108  RH  035%=      5-min Rain = 0
KNH1 202216Z 12007KT 27/11 A3016 RMK A01 T02730107  RH  035%=      5-min Rain = 0
KNH1 202217Z 12005KT 27/11 A3016 RMK A01 T02710107  RH  036%=      5-min Rain = 0
KNH1 202218Z 12007KT 27/11 A3016 RMK A01 T02710109  RH  036%=      5-min Rain = 0
KNH1 202219Z 14005KT 27/11 A3016 RMK A01 T02710108  RH  036%=      5-min Rain = 0
KNH1 202220Z 14005KT 27/11 A3016 RMK A01 T02710106  RH  036%=      5-min Rain = 0
KNH1 202221Z 13007KT 27/11 A3016 RMK A01 T02710106  RH  035%=      5-min Rain = 0
KNH1 202222Z 13008KT 27/11 A3016 RMK A01 T02720106  RH  035%=      5-min Rain = 0
KNH1 202223Z 12008KT 27/10 A3016 RMK A01 T02730103  RH  034%=      5-min Rain = 0
KNH1 202224Z 13009KT 27/10 A3016 RMK A01 T02730102  RH  034%=      5-min Rain = 0
KNH1 202225Z 13007KT 27/10 A3016 RMK A01 T02730102  RH  034%=      5-min Rain = 0
KNH1 202226Z 11006KT 27/10 A3016 RMK A01 T02730103  RH  034%=      5-min Rain = 0
KNH1 202227Z 11009KT 27/10 A3016 RMK A01 T02730101  RH  034%=      5-min Rain = 0
KNH1 202228Z 10009KT 27/10 A3016 RMK A01 T02720100  RH  034%=      5-min Rain = 0
KNH1 202229Z 10006KT 27/10 A3016 RMK A01 T02710099  RH  034%=      5-min Rain = 0
KNH1 202230Z 11004KT 27/10 A3016 RMK A01 T02700099  RH  034%=      5-min Rain = 0
KNH1 202231Z 11006KT 27/10 A3016 RMK A01 T02700100  RH  034%=      5-min Rain = 0
KNH1 202232Z 13009KT 27/10 A3016 RMK A01 T02710098  RH  034%=      5-min Rain = 0
KNH1 202233Z 13009G14KT 27/10 A3016 RMK A01 T02710099  RH  034%=      5-min Rain = 0
KNH1 202234Z 13011KT 27/10 A3016 RMK A01 T02710097  RH  034%=      5-min Rain = 0
KNH1 202235Z 13007KT 27/10 A3016 RMK A01 T02720098  RH  034%=      5-min Rain = 0
KNH1 202236Z 13007KT 27/10 A3016 RMK A01 T02720098  RH  034%=      5-min Rain = 0
KNH1 202237Z 14008KT 27/10 A3016 RMK A01 T02730097  RH  033%=      5-min Rain = 0
KNH1 202238Z 13008KT 27/10 A3016 RMK A01 T02730096  RH  033%=      5-min Rain = 0
KNH1 202239Z 13007KT 27/10 A3016 RMK A01 T02730096  RH  033%=      5-min Rain = 0
KNH1 202240Z 13008KT 27/10 A3016 RMK A01 T02730095  RH  033%=      5-min Rain = 0
KNH1 202241Z 12006KT 27/09 A3016 RMK A01 T02730094  RH  032%=      5-min Rain = 0
KNH1 202242Z 12009KT 27/09 A3016 RMK A01 T02720093  RH  032%=      5-min Rain = 0
KNH1 202243Z 13007G12KT 27/09 A3016 RMK A01 T02710093  RH  033%=      5-min Rain = 0
KNH1 202244Z 12006G11KT 27/09 A3016 RMK A01 T02700094  RH  033%=      5-min Rain = 0
KNH1 202245Z 14005G10KT 27/10 A3016 RMK A01 T02700097  RH  034%=      5-min Rain = 0
KNH1 202246Z 14010KT 27/10 A3016 RMK A01 T02710095  RH  033%=      5-min Rain = 0
KNH1 202247Z 13008KT 27/09 A3016 RMK A01 T02710093  RH  033%=      5-min Rain = 0
KNH1 202248Z 14007KT 27/09 A3016 RMK A01 T02700094  RH  033%=      5-min Rain = 0
KNH1 202249Z 15005KT 27/09 A3016 RMK A01 T02690092  RH  033%=      5-min Rain = 0
KNH1 202250Z 14005KT 27/09 A3016 RMK A01 T02680094  RH  033%=      5-min Rain = 0
KNH1 202251Z 12005G10KT 27/10 A3016 RMK A01 T02680096  RH  034%=      5-min Rain = 0
KNH1 202252Z 12008KT 27/10 A3016 RMK A01 T02690097  RH  034%=      5-min Rain = 0
KNH1 202253Z 13009KT 27/10 A3016 RMK A01 T02700096  RH  034%=      5-min Rain = 0
KNH1 202254Z 14005KT 27/09 A3016 RMK A01 T02690094  RH  033%=      5-min Rain = 0
KNH1 202255Z 13005KT 27/10 A3016 RMK A01 T02700098  RH  034%=      5-min Rain = 0
KNH1 202256Z 13005KT 27/10 A3016 RMK A01 T02710098  RH  034%=      5-min Rain = 0
KNH1 202257Z 12005KT 27/10 A3016 RMK A01 T02720095  RH  033%=      5-min Rain = 0
KNH1 202258Z 11006KT 27/10 A3016 RMK A01 T02710095  RH  033%=      5-min Rain = 0
KNH1 202259Z 12007KT 27/09 A3016 RMK A01 T02700094  RH  033%=      5-min Rain = 0
KNH1 202300Z 12008KT 27/09 A3016 RMK A01 T02690093  RH  033%=      5-min Rain = 0
KNH1 202301Z 13006KT 27/09 A3016 RMK A01 T02690093  RH  033%=      5-min Rain = 0
KNH1 202302Z 13006KT 27/09 A3016 RMK A01 T02680093  RH  033%=      5-min Rain = 0
KNH1 202303Z 13006KT 27/09 A3016 RMK A01 T02670094  RH  034%=      5-min Rain = 0
KNH1 202304Z 14006KT 27/09 A3016 RMK A01 T02670094  RH  034%=      5-min Rain = 0
KNH1 202305Z 14008KT 27/09 A3016 RMK A01 T02670094  RH  034%=      5-min Rain = 0
KNH1 202306Z 13006KT 27/09 A3016 RMK A01 T02670093  RH  034%=      5-min Rain = 0
KNH1 202307Z 12006KT 27/09 A3016 RMK A01 T02670092  RH  033%=      5-min Rain = 0
KNH1 202308Z 14006KT 27/09 A3016 RMK A01 T02660091  RH  033%=      5-min Rain = 0
KNH1 202309Z 13006KT 27/09 A3016 RMK A01 T02650092  RH  034%=      5-min Rain = 0
KNH1 202310Z 12008KT 27/09 A3016 RMK A01 T02650093  RH  034%=      5-min Rain = 0
KNH1 202311Z 13004KT 27/09 A3016 RMK A01 T02650090  RH  033%=      5-min Rain = 0
KNH1 202312Z 13007KT 27/09 A3016 RMK A01 T02650091  RH  033%=      5-min Rain = 0
KNH1 202313Z 12007KT 27/09 A3016 RMK A01 T02650092  RH  034%=      5-min Rain = 0
KNH1 202314Z 12006KT 26/09 A3016 RMK A01 T02640091  RH  034%=      5-min Rain = 0
KNH1 202315Z 12006KT 26/09 A3016 RMK A01 T02640091  RH  033%=      5-min Rain = 0
KNH1 202316Z 12005KT 26/09 A3016 RMK A01 T02640092  RH  034%=      5-min Rain = 0
KNH1 202317Z 12003KT 26/09 A3016 RMK A01 T02640092  RH  034%=      5-min Rain = 0
KNH1 202318Z 15005KT 27/09 A3016 RMK A01 T02650092  RH  034%=      5-min Rain = 0
KNH1 202319Z 15006KT 27/09 A3016 RMK A01 T02650091  RH  033%=      5-min Rain = 0
KNH1 202320Z 15004KT 27/09 A3016 RMK A01 T02650090  RH  033%=      5-min Rain = 0
KNH1 202321Z 14004KT 27/09 A3016 RMK A01 T02650092  RH  034%=      5-min Rain = 0
KNH1 202322Z 13004KT 27/09 A3016 RMK A01 T02650093  RH  034%=      5-min Rain = 0
KNH1 202323Z 12006KT 27/09 A3016 RMK A01 T02650093  RH  034%=      5-min Rain = 0
KNH1 202324Z 12004KT 27/09 A3016 RMK A01 T02650093  RH  034%=      5-min Rain = 0
KNH1 202325Z 13005KT 26/10 A3016 RMK A01 T02640095  RH  034%=      5-min Rain = 0
KNH1 202326Z 14005KT 26/09 A3016 RMK A01 T02640094  RH  034%=      5-min Rain = 0
KNH1 202327Z 14006KT 26/09 A3016 RMK A01 T02640094  RH  034%=      5-min Rain = 0
KNH1 202328Z 16007KT 26/09 A3016 RMK A01 T02640093  RH  034%=      5-min Rain = 0
KNH1 202329Z 16009KT 26/09 A3016 RMK A01 T02640086  RH  032%=      5-min Rain = 0
KNH1 202330Z 15008KT 26/08 A3016 RMK A01 T02630083  RH  032%=      5-min Rain = 0
KNH1 202331Z 15007KT 26/08 A3016 RMK A01 T02620083  RH  032%=      5-min Rain = 0
KNH1 202332Z 14006KT 26/08 A3016 RMK A01 T02620083  RH  032%=      5-min Rain = 0
KNH1 202333Z 15005KT 26/08 A3016 RMK A01 T02620084  RH  032%=      5-min Rain = 0
KNH1 202334Z 14007KT 26/08 A3016 RMK A01 T02610084  RH  033%=      5-min Rain = 0
KNH1 202335Z 12008KT 26/09 A3016 RMK A01 T02610086  RH  033%=      5-min Rain = 0
KNH1 202336Z 13006KT 26/09 A3016 RMK A01 T02610089  RH  034%=      5-min Rain = 0
KNH1 202337Z 14005KT 26/09 A3016 RMK A01 T02610089  RH  034%=      5-min Rain = 0
KNH1 202338Z 16005KT 26/09 A3016 RMK A01 T02600087  RH  033%=      5-min Rain = 0
KNH1 202339Z 15006KT 26/09 A3016 RMK A01 T02600088  RH  034%=      5-min Rain = 0
KNH1 202340Z 13005KT 26/09 A3016 RMK A01 T02600088  RH  034%=      5-min Rain = 0
KNH1 202341Z 14005KT 26/09 A3016 RMK A01 T02600089  RH  034%=      5-min Rain = 0
KNH1 202342Z 13005KT 26/09 A3017 RMK A01 T02600092  RH  035%=      5-min Rain = 0
KNH1 202343Z 12003KT 26/09 A3017 RMK A01 T02600094  RH  035%=      5-min Rain = 0
KNH1 202344Z 13004KT 26/10 A3016 RMK A01 T02590095  RH  035%=      5-min Rain = 0
KNH1 202345Z 12005KT 26/10 A3017 RMK A01 T02590095  RH  036%=      5-min Rain = 0
KNH1 202346Z 13008KT 26/09 A3016 RMK A01 T02590093  RH  035%=      5-min Rain = 0
KNH1 202347Z 13007KT 26/09 A3016 RMK A01 T02580091  RH  035%=      5-min Rain = 0
KNH1 202348Z 13006KT 26/09 A3017 RMK A01 T02570091  RH  035%=      5-min Rain = 0
KNH1 202349Z 14005KT 26/09 A3017 RMK A01 T02570090  RH  035%=      5-min Rain = 0
KNH1 202350Z 13005KT 26/09 A3017 RMK A01 T02560090  RH  035%=      5-min Rain = 0
KNH1 202351Z 12006KT 26/09 A3017 RMK A01 T02560090  RH  035%=      5-min Rain = 0
KNH1 202352Z 12006KT 26/09 A3017 RMK A01 T02560090  RH  035%=      5-min Rain = 0
KNH1 202353Z 13005KT 26/09 A3017 RMK A01 T02550090  RH  035%=      5-min Rain = 0
KNH1 202354Z 13005KT 26/09 A3017 RMK A01 T02550090  RH  035%=      5-min Rain = 0
KNH1 202355Z 13003KT 25/09 A3017 RMK A01 T02540089  RH  035%=      5-min Rain = 0
KNH1 202356Z 14005KT 25/09 A3017 RMK A01 T02540090  RH  035%=      5-min Rain = 0
KNH1 202357Z 13005KT 25/09 A3017 RMK A01 T02540090  RH  035%=      5-min Rain = 0
KNH1 202358Z 13004KT 25/09 A3017 RMK A01 T02530089  RH  035%=      5-min Rain = 0
KNH1 202359Z 13006KT 25/09 A3017 RMK A01 T02530088  RH  035%=      5-min Rain = 0
KNH1 210000Z 14006KT 25/09 A3017 RMK A01 T02530087  RH  035%=      5-min Rain = 0
KNH1 210001Z 13006KT 25/09 A3017 RMK A01 T02530087  RH  035%=      5-min Rain = 0
KNH1 210002Z 13007KT 25/09 A3017 RMK A01 T02520086  RH  035%=      5-min Rain = 0
KNH1 210003Z 13006KT 25/09 A3017 RMK A01 T02520085  RH  034%=      5-min Rain = 0
KNH1 210004Z 13006KT 25/09 A3017 RMK A01 T02520085  RH  035%=      5-min Rain = 0
KNH1 210005Z 13005KT 25/09 A3017 RMK A01 T02510086  RH  035%=      5-min Rain = 0
KNH1 210006Z 13004KT 25/09 A3017 RMK A01 T02510088  RH  035%=      5-min Rain = 0
KNH1 210007Z 13004KT 25/09 A3017 RMK A01 T02500088  RH  036%=      5-min Rain = 0
KNH1 210008Z 13004KT 25/09 A3017 RMK A01 T02490089  RH  036%=      5-min Rain = 0
KNH1 210009Z 13004KT 25/09 A3017 RMK A01 T02490090  RH  036%=      5-min Rain = 0
KNH1 210010Z 14005KT 25/09 A3017 RMK A01 T02480090  RH  037%=      5-min Rain = 0
KNH1 210011Z 13005KT 25/09 A3017 RMK A01 T02480090  RH  037%=      5-min Rain = 0
KNH1 210012Z 14005KT 25/09 A3017 RMK A01 T02470091  RH  037%=      5-min Rain = 0
KNH1 210013Z 14005KT 25/09 A3017 RMK A01 T02460091  RH  037%=      5-min Rain = 0
KNH1 210014Z 14006KT 25/09 A3017 RMK A01 T02460091  RH  037%=      5-min Rain = 0
KNH1 210015Z 15006KT 25/09 A3016 RMK A01 T02450088  RH  037%=      5-min Rain = 0
KNH1 210016Z 13005KT 25/09 A3016 RMK A01 T02450086  RH  036%=      5-min Rain = 0
KNH1 210017Z 14005KT 25/09 A3016 RMK A01 T02450086  RH  036%=      5-min Rain = 0
KNH1 210018Z 14006KT 24/08 A3016 RMK A01 T02440084  RH  036%=      5-min Rain = 0
KNH1 210019Z 14006KT 24/08 A3016 RMK A01 T02440082  RH  035%=      5-min Rain = 0
KNH1 210020Z 13006KT 24/08 A3016 RMK A01 T02440081  RH  035%=      5-min Rain = 0
KNH1 210021Z 14005KT 24/08 A3016 RMK A01 T02440081  RH  035%=      5-min Rain = 0
KNH1 210022Z 14006KT 24/08 A3016 RMK A01 T02440082  RH  036%=      5-min Rain = 0
KNH1 210023Z 13005KT 24/08 A3016 RMK A01 T02430083  RH  036%=      5-min Rain = 0
KNH1 210024Z 13005KT 24/08 A3016 RMK A01 T02420082  RH  036%=      5-min Rain = 0
KNH1 210025Z 14004KT 24/08 A3016 RMK A01 T02410082  RH  036%=      5-min Rain = 0
KNH1 210026Z 13005KT 24/08 A3016 RMK A01 T02400082  RH  036%=      5-min Rain = 0
KNH1 210027Z 13005KT 24/08 A3016 RMK A01 T02390082  RH  037%=      5-min Rain = 0
KNH1 210028Z 13005KT 24/08 A3016 RMK A01 T02380081  RH  036%=      5-min Rain = 0
KNH1 210029Z 13005KT 24/08 A3016 RMK A01 T02380082  RH  037%=      5-min Rain = 0
KNH1 210030Z 13005KT 24/08 A3016 RMK A01 T02370081  RH  037%=      5-min Rain = 0
KNH1 210031Z 13005KT 24/08 A3016 RMK A01 T02360081  RH  037%=      5-min Rain = 0
KNH1 210032Z 13005KT 24/08 A3016 RMK A01 T02350081  RH  037%=      5-min Rain = 0
KNH1 210033Z 13005KT 23/08 A3016 RMK A01 T02340081  RH  038%=      5-min Rain = 0
KNH1 210034Z 13004KT 23/08 A3016 RMK A01 T02330082  RH  038%=      5-min Rain = 0
KNH1 210035Z 13004KT 23/08 A3016 RMK A01 T02320082  RH  038%=      5-min Rain = 0
KNH1 210036Z 13004KT 23/08 A3016 RMK A01 T02310082  RH  038%=      5-min Rain = 0
KNH1 210037Z 13004KT 23/08 A3016 RMK A01 T02310082  RH  039%=      5-min Rain = 0
KNH1 210038Z 14004KT 23/08 A3016 RMK A01 T02300082  RH  039%=      5-min Rain = 0
KNH1 210039Z 13004KT 23/08 A3016 RMK A01 T02290082  RH  039%=      5-min Rain = 0
KNH1 210040Z 14004KT 23/08 A3016 RMK A01 T02280082  RH  039%=      5-min Rain = 0
KNH1 210041Z 13004KT 23/08 A3016 RMK A01 T02270082  RH  040%=      5-min Rain = 0
KNH1 210042Z 13005KT 23/08 A3016 RMK A01 T02260082  RH  040%=      5-min Rain = 0
KNH1 210043Z 14005KT 23/08 A3016 RMK A01 T02250082  RH  040%=      5-min Rain = 0
KNH1 210044Z 13004KT 22/08 A3016 RMK A01 T02240082  RH  040%=      5-min Rain = 0
KNH1 210045Z 14004KT 22/08 A3016 RMK A01 T02230083  RH  041%=      5-min Rain = 0
KNH1 210046Z 14004KT 22/08 A3016 RMK A01 T02220082  RH  041%=      5-min Rain = 0
KNH1 210047Z 14004KT 22/08 A3016 RMK A01 T02210082  RH  041%=      5-min Rain = 0
KNH1 210048Z 13004KT 22/08 A3016 RMK A01 T02200082  RH  041%=      5-min Rain = 0
KNH1 210049Z 13004KT 22/08 A3016 RMK A01 T02190082  RH  041%=      5-min Rain = 0
KNH1 210050Z 13004KT 22/08 A3016 RMK A01 T02180082  RH  041%=      5-min Rain = 0
KNH1 210051Z 14004KT 22/08 A3016 RMK A01 T02180082  RH  042%=      5-min Rain = 0
KNH1 210052Z 14004KT 22/08 A3016 RMK A01 T02170081  RH  042%=      5-min Rain = 0
KNH1 210053Z 14004KT 22/08 A3016 RMK A01 T02160082  RH  042%=      5-min Rain = 0
KNH1 210054Z 13004KT 22/08 A3016 RMK A01 T02150082  RH  042%=      5-min Rain = 0
KNH1 210055Z 13004KT 21/08 A3016 RMK A01 T02140082  RH  042%=      5-min Rain = 0
KNH1 210056Z 14004KT 21/08 A3016 RMK A01 T02140082  RH  043%=      5-min Rain = 0
KNH1 210057Z 14004KT 21/08 A3016 RMK A01 T02130083  RH  043%=      5-min Rain = 0
KNH1 210058Z 13004KT 21/08 A3016 RMK A01 T02120082  RH  043%=      5-min Rain = 0
KNH1 210059Z 15004KT 21/08 A3016 RMK A01 T02110082  RH  043%=      5-min Rain = 0
KNH1 210100Z 14004KT 21/08 A3016 RMK A01 T02100082  RH  044%=      5-min Rain = 0
KNH1 210101Z 14004KT 21/08 A3016 RMK A01 T02100082  RH  044%=      5-min Rain = 0
KNH1 210102Z 14004KT 21/08 A3016 RMK A01 T02090081  RH  044%=      5-min Rain = 0
KNH1 210103Z 14004KT 21/08 A3016 RMK A01 T02080080  RH  044%=      5-min Rain = 0
KNH1 210104Z 14004KT 21/08 A3017 RMK A01 T02080080  RH  044%=      5-min Rain = 0
KNH1 210105Z 14003KT 21/08 A3017 RMK A01 T02070081  RH  044%=      5-min Rain = 0
KNH1 210106Z 14004KT 21/08 A3017 RMK A01 T02060080  RH  044%=      5-min Rain = 0
KNH1 210107Z 14003KT 21/08 A3017 RMK A01 T02060080  RH  044%=      5-min Rain = 0
KNH1 210108Z 14004KT 21/08 A3017 RMK A01 T02050080  RH  045%=      5-min Rain = 0
KNH1 210109Z 13004KT 20/08 A3017 RMK A01 T02040080  RH  045%=      5-min Rain = 0
KNH1 210110Z 14003KT 20/08 A3017 RMK A01 T02040080  RH  045%=      5-min Rain = 0
KNH1 210111Z 14004KT 20/08 A3017 RMK A01 T02030080  RH  045%=      5-min Rain = 0
KNH1 210112Z 14004KT 20/08 A3017 RMK A01 T02030080  RH  045%=      5-min Rain = 0
KNH1 210113Z 14004KT 20/08 A3017 RMK A01 T02020080  RH  045%=      5-min Rain = 0
KNH1 210114Z 14004KT 20/08 A3017 RMK A01 T02020080  RH  045%=      5-min Rain = 0
KNH1 210115Z 14004KT 20/08 A3017 RMK A01 T02010080  RH  045%=      5-min Rain = 0
KNH1 210116Z 14004KT 20/08 A3017 RMK A01 T02010080  RH  046%=      5-min Rain = 0
KNH1 210117Z 15004KT 20/08 A3017 RMK A01 T02000080  RH  046%=      5-min Rain = 0
KNH1 210118Z 15004KT 20/08 A3017 RMK A01 T02000080  RH  046%=      5-min Rain = 0
KNH1 210119Z 15004KT 20/08 A3017 RMK A01 T02000080  RH  046%=      5-min Rain = 0
KNH1 210120Z 15004KT 20/08 A3017 RMK A01 T02000079  RH  046%=      5-min Rain = 0
KNH1 210121Z 15004KT 20/08 A3017 RMK A01 T02000079  RH  046%=      5-min Rain = 0
KNH1 210122Z 15004KT 20/08 A3017 RMK A01 T02000080  RH  046%=      5-min Rain = 0
KNH1 210123Z 15004KT 20/08 A3017 RMK A01 T02000079  RH  046%=      5-min Rain = 0
KNH1 210124Z 15004KT 20/08 A3017 RMK A01 T02000079  RH  046%=      5-min Rain = 0
KNH1 210125Z 15004KT 20/08 A3017 RMK A01 T02000079  RH  046%=      5-min Rain = 0
KNH1 210126Z 15004KT 20/08 A3017 RMK A01 T02000080  RH  046%=      5-min Rain = 0
KNH1 210127Z 15004KT 20/08 A3017 RMK A01 T01990079  RH  046%=      5-min Rain = 0
KNH1 210128Z 15004KT 20/08 A3017 RMK A01 T01990079  RH  046%=      5-min Rain = 0
KNH1 210129Z 15004KT 20/08 A3017 RMK A01 T01990079  RH  046%=      5-min Rain = 0
KNH1 210130Z 15004KT 20/08 A3017 RMK A01 T01990079  RH  046%=      5-min Rain = 0
KNH1 210131Z 15004KT 20/08 A3017 RMK A01 T01990079  RH  046%=      5-min Rain = 0
KNH1 210132Z 16004KT 20/08 A3017 RMK A01 T01980079  RH  046%=      5-min Rain = 0
KNH1 210133Z 15004KT 20/08 A3017 RMK A01 T01980079  RH  046%=      5-min Rain = 0
KNH1 210134Z 15004KT 20/08 A3017 RMK A01 T01980079  RH  046%=      5-min Rain = 0
KNH1 210135Z 15004KT 20/08 A3017 RMK A01 T01980079  RH  046%=      5-min Rain = 0
KNH1 210136Z 15004KT 20/08 A3017 RMK A01 T01990079  RH  046%=      5-min Rain = 0
KNH1 210137Z 15004KT 20/08 A3017 RMK A01 T01990079  RH  046%=      5-min Rain = 0
KNH1 210138Z 15004KT 20/08 A3017 RMK A01 T01990079  RH  046%=      5-min Rain = 0
KNH1 210139Z 15004KT 20/08 A3017 RMK A01 T02000079  RH  046%=      5-min Rain = 0
KNH1 210140Z 15004KT 20/08 A3017 RMK A01 T02000079  RH  046%=      5-min Rain = 0
KNH1 210141Z 15004KT 20/08 A3017 RMK A01 T02000079  RH  046%=      5-min Rain = 0
KNH1 210142Z 15004KT 20/08 A3017 RMK A01 T02000079  RH  046%=      5-min Rain = 0
KNH1 210143Z 15004KT 20/08 A3017 RMK A01 T02000079  RH  045%=      5-min Rain = 0
KNH1 210144Z 15004KT 20/08 A3017 RMK A01 T02010079  RH  045%=      5-min Rain = 0
KNH1 210145Z 15005KT 20/08 A3017 RMK A01 T02010078  RH  045%=      5-min Rain = 0
KNH1 210146Z 15005KT 20/08 A3017 RMK A01 T02010078  RH  045%=      5-min Rain = 0
KNH1 210147Z 14005KT 20/08 A3017 RMK A01 T02010078  RH  045%=      5-min Rain = 0
KNH1 210148Z 15004KT 20/08 A3017 RMK A01 T02010078  RH  045%=      5-min Rain = 0
KNH1 210149Z 15004KT 20/08 A3017 RMK A01 T02010078  RH  045%=      5-min Rain = 0
KNH1 210150Z 15004KT 20/08 A3017 RMK A01 T02000078  RH  045%=      5-min Rain = 0
KNH1 210151Z 15005KT 20/08 A3017 RMK A01 T02000079  RH  045%=      5-min Rain = 0
KNH1 210152Z 14004KT 20/08 A3017 RMK A01 T02000078  RH  045%=      5-min Rain = 0
KNH1 210153Z 15004KT 20/08 A3017 RMK A01 T01990078  RH  046%=      5-min Rain = 0
KNH1 210154Z 15004KT 20/08 A3018 RMK A01 T01990078  RH  046%=      5-min Rain = 0
KNH1 210155Z 15004KT 20/08 A3018 RMK A01 T01980078  RH  046%=      5-min Rain = 0
KNH1 210156Z 14004KT 20/08 A3018 RMK A01 T01980078  RH  046%=      5-min Rain = 0
KNH1 210157Z 15004KT 20/08 A3018 RMK A01 T01970078  RH  046%=      5-min Rain = 0
KNH1 210158Z 14004KT 20/08 A3018 RMK A01 T01970079  RH  046%=      5-min Rain = 0
KNH1 210159Z 14004KT 20/08 A3018 RMK A01 T01960078  RH  047%=      5-min Rain = 0
KNH1 210200Z 10003KT 20/08 A3018 RMK A01 T01950079  RH  047%=      5-min Rain = 0
KNH1 210201Z 10005KT 19/08 A3018 RMK A01 T01920080  RH  048%=      5-min Rain = 0
KNH1 210202Z 10004KT 19/08 A3018 RMK A01 T01890080  RH  049%=      5-min Rain = 0
KNH1 210203Z 11005KT 19/08 A3018 RMK A01 T01870080  RH  050%=      5-min Rain = 0
KNH1 210204Z 13007KT 19/08 A3018 RMK A01 T01850080  RH  050%=      5-min Rain = 0
KNH1 210205Z 12006KT 19/08 A3018 RMK A01 T01850079  RH  050%=      5-min Rain = 0
KNH1 210206Z 11005KT 19/08 A3018 RMK A01 T01850080  RH  050%=      5-min Rain = 0
KNH1 210207Z 11005KT 19/08 A3018 RMK A01 T01850081  RH  051%=      5-min Rain = 0
KNH1 210208Z 11005KT 19/08 A3018 RMK A01 T01850082  RH  051%=      5-min Rain = 0
KNH1 210209Z 12005KT 19/08 A3018 RMK A01 T01850083  RH  051%=      5-min Rain = 0
KNH1 210210Z 11005KT 19/08 A3018 RMK A01 T01850083  RH  051%=      5-min Rain = 0
KNH1 210211Z 11005KT 19/08 A3018 RMK A01 T01850083  RH  052%=      5-min Rain = 0
KNH1 210212Z 12005KT 18/08 A3018 RMK A01 T01840083  RH  052%=      5-min Rain = 0
KNH1 210213Z 12005KT 18/08 A3018 RMK A01 T01840084  RH  052%=      5-min Rain = 0
KNH1 210214Z 11005KT 18/08 A3018 RMK A01 T01830084  RH  052%=      5-min Rain = 0
KNH1 210215Z 12005KT 18/08 A3018 RMK A01 T01830083  RH  052%=      5-min Rain = 0
KNH1 210216Z 12006KT 18/08 A3018 RMK A01 T01830083  RH  052%=      5-min Rain = 0
KNH1 210217Z 12005KT 18/08 A3018 RMK A01 T01830083  RH  052%=      5-min Rain = 0
KNH1 210218Z 12005KT 18/08 A3018 RMK A01 T01830083  RH  052%=      5-min Rain = 0
KNH1 210219Z 11005KT 18/08 A3018 RMK A01 T01830083  RH  052%=      5-min Rain = 0
KNH1 210220Z 12006KT 18/08 A3018 RMK A01 T01820083  RH  052%=      5-min Rain = 0
KNH1 210221Z 12005KT 18/08 A3018 RMK A01 T01810083  RH  052%=      5-min Rain = 0
KNH1 210222Z 12005KT 18/08 A3018 RMK A01 T01810083  RH  053%=      5-min Rain = 0
KNH1 210223Z 12005KT 18/08 A3018 RMK A01 T01810083  RH  053%=      5-min Rain = 0
KNH1 210224Z 12006KT 18/08 A3018 RMK A01 T01800083  RH  053%=      5-min Rain = 0
KNH1 210225Z 12005KT 18/08 A3018 RMK A01 T01790083  RH  053%=      5-min Rain = 0
KNH1 210226Z 12005KT 18/08 A3019 RMK A01 T01790083  RH  053%=      5-min Rain = 0
KNH1 210227Z 12005KT 18/08 A3019 RMK A01 T01790083  RH  053%=      5-min Rain = 0
KNH1 210228Z 11005KT 18/08 A3019 RMK A01 T01780083  RH  054%=      5-min Rain = 0
KNH1 210229Z 11006KT 18/08 A3019 RMK A01 T01770083  RH  054%=      5-min Rain = 0
KNH1 210230Z 12005KT 18/08 A3019 RMK A01 T01760083  RH  054%=      5-min Rain = 0
KNH1 210231Z 12005KT 18/08 A3019 RMK A01 T01760083  RH  054%=      5-min Rain = 0
KNH1 210232Z 12005KT 18/08 A3019 RMK A01 T01750083  RH  055%=      5-min Rain = 0
KNH1 210233Z 12004KT 18/08 A3019 RMK A01 T01750084  RH  055%=      5-min Rain = 0
KNH1 210234Z 13005KT 17/08 A3019 RMK A01 T01740083  RH  055%=      5-min Rain = 0
KNH1 210235Z 12005KT 17/08 A3019 RMK A01 T01740084  RH  055%=      5-min Rain = 0
KNH1 210236Z 12005KT 17/08 A3019 RMK A01 T01740084  RH  056%=      5-min Rain = 0
KNH1 210237Z 12005KT 17/08 A3019 RMK A01 T01730084  RH  056%=      5-min Rain = 0
KNH1 210238Z 12005KT 17/08 A3019 RMK A01 T01730084  RH  056%=      5-min Rain = 0
KNH1 210239Z 12004KT 17/09 A3019 RMK A01 T01720085  RH  056%=      5-min Rain = 0
KNH1 210240Z 12004KT 17/08 A3019 RMK A01 T01710084  RH  057%=      5-min Rain = 0
KNH1 210241Z 12005KT 17/09 A3019 RMK A01 T01710085  RH  057%=      5-min Rain = 0
KNH1 210242Z 12004KT 17/09 A3019 RMK A01 T01700085  RH  057%=      5-min Rain = 0
KNH1 210243Z 12004KT 17/09 A3019 RMK A01 T01700085  RH  057%=      5-min Rain = 0
KNH1 210244Z 12004KT 17/09 A3019 RMK A01 T01690085  RH  058%=      5-min Rain = 0
KNH1 210245Z 12004KT 17/09 A3019 RMK A01 T01690086  RH  058%=      5-min Rain = 0
KNH1 210246Z 12004KT 17/09 A3019 RMK A01 T01690086  RH  058%=      5-min Rain = 0
KNH1 210247Z 12004KT 17/09 A3019 RMK A01 T01680086  RH  058%=      5-min Rain = 0
KNH1 210248Z 12004KT 17/09 A3019 RMK A01 T01680086  RH  058%=      5-min Rain = 0
KNH1 210249Z 12005KT 17/09 A3019 RMK A01 T01680086  RH  059%=      5-min Rain = 0
KNH1 210250Z 12004KT 17/09 A3019 RMK A01 T01670086  RH  059%=      5-min Rain = 0
KNH1 210251Z 12004KT 17/09 A3019 RMK A01 T01670087  RH  059%=      5-min Rain = 0
KNH1 210252Z 12004KT 17/09 A3019 RMK A01 T01670087  RH  059%=      5-min Rain = 0
KNH1 210253Z 12004KT 17/09 A3019 RMK A01 T01670087  RH  059%=      5-min Rain = 0
KNH1 210254Z 12004KT 17/09 A3019 RMK A01 T01670087  RH  059%=      5-min Rain = 0
KNH1 210255Z 10004KT 17/09 A3019 RMK A01 T01670086  RH  059%=      5-min Rain = 0
KNH1 210256Z 10005KT 17/09 A3019 RMK A01 T01650086  RH  059%=      5-min Rain = 0
KNH1 210257Z 11005KT 16/09 A3019 RMK A01 T01640086  RH  060%=      5-min Rain = 0
KNH1 210258Z 11004KT 16/09 A302 RMK A01 T01630086  RH  060%=      5-min Rain = 0
KNH1 210259Z 11005KT 16/09 A302 RMK A01 T01630086  RH  060%=      5-min Rain = 0
KNH1 210300Z 11005KT 16/09 A302 RMK A01 T01630086  RH  060%=      5-min Rain = 0
KNH1 210301Z 12005KT 16/09 A302 RMK A01 T01620086  RH  061%=      5-min Rain = 0
KNH1 210302Z 11005KT 16/09 A302 RMK A01 T01620087  RH  061%=      5-min Rain = 0
KNH1 210303Z 11004KT 16/09 A302 RMK A01 T01620087  RH  061%=      5-min Rain = 0
KNH1 210304Z 11005KT 16/09 A302 RMK A01 T01620087  RH  061%=      5-min Rain = 0
KNH1 210305Z 11004KT 16/09 A302 RMK A01 T01610087  RH  061%=      5-min Rain = 0
KNH1 210306Z 11004KT 16/09 A302 RMK A01 T01610087  RH  062%=      5-min Rain = 0
KNH1 210307Z 11004KT 16/09 A302 RMK A01 T01600088  RH  062%=      5-min Rain = 0
KNH1 210308Z 11005KT 16/09 A302 RMK A01 T01590088  RH  062%=      5-min Rain = 0
KNH1 210309Z 11005KT 16/09 A302 RMK A01 T01590088  RH  062%=      5-min Rain = 0
KNH1 210310Z 11005KT 16/09 A302 RMK A01 T01590088  RH  063%=      5-min Rain = 0
KNH1 210311Z 11004KT 16/09 A302 RMK A01 T01590088  RH  063%=      5-min Rain = 0
KNH1 210312Z 11004KT 16/09 A302 RMK A01 T01590088  RH  063%=      5-min Rain = 0
KNH1 210313Z 11004KT 16/09 A302 RMK A01 T01580087  RH  063%=      5-min Rain = 0
KNH1 210314Z 11003KT 16/09 A302 RMK A01 T01580087  RH  063%=      5-min Rain = 0
KNH1 210315Z 11003KT 16/09 A302 RMK A01 T01570087  RH  063%=      5-min Rain = 0
KNH1 210316Z 11003KT 16/09 A302 RMK A01 T01570087  RH  063%=      5-min Rain = 0
KNH1 210317Z 11004KT 16/09 A302 RMK A01 T01570087  RH  063%=      5-min Rain = 0
KNH1 210318Z 11005KT 16/09 A302 RMK A01 T01560087  RH  063%=      5-min Rain = 0
KNH1 210319Z 11004KT 16/09 A302 RMK A01 T01560087  RH  063%=      5-min Rain = 0
KNH1 210320Z 11004KT 16/09 A302 RMK A01 T01560087  RH  063%=      5-min Rain = 0
KNH1 210321Z 11005KT 16/09 A302 RMK A01 T01560086  RH  063%=      5-min Rain = 0
KNH1 210322Z 11005KT 16/09 A302 RMK A01 T01550086  RH  063%=      5-min Rain = 0
KNH1 210323Z 11005KT 16/09 A302 RMK A01 T01550086  RH  064%=      5-min Rain = 0
KNH1 210324Z 11005KT 16/09 A302 RMK A01 T01550086  RH  064%=      5-min Rain = 0
KNH1 210325Z 11004KT 15/09 A302 RMK A01 T01540086  RH  064%=      5-min Rain = 0
KNH1 210326Z 11004KT 15/09 A302 RMK A01 T01540086  RH  064%=      5-min Rain = 0
KNH1 210327Z 11004KT 15/09 A302 RMK A01 T01530086  RH  064%=      5-min Rain = 0
KNH1 210328Z 11003KT 15/09 A302 RMK A01 T01540086  RH  064%=      5-min Rain = 0
KNH1 210329Z 11004KT 15/09 A302 RMK A01 T01520086  RH  064%=      5-min Rain = 0
KNH1 210330Z 11004KT 15/09 A302 RMK A01 T01530087  RH  065%=      5-min Rain = 0
KNH1 210331Z 11005KT 15/09 A302 RMK A01 T01520086  RH  065%=      5-min Rain = 0
KNH1 210332Z 11004KT 15/09 A302 RMK A01 T01510086  RH  065%=      5-min Rain = 0
KNH1 210333Z 11004KT 15/09 A302 RMK A01 T01510086  RH  065%=      5-min Rain = 0
KNH1 210334Z 11004KT 15/09 A302 RMK A01 T01510087  RH  065%=      5-min Rain = 0
KNH1 210335Z 11004KT 15/09 A302 RMK A01 T01510087  RH  066%=      5-min Rain = 0
KNH1 210336Z 11004KT 15/09 A302 RMK A01 T01510087  RH  066%=      5-min Rain = 0
KNH1 210337Z 11004KT 15/09 A302 RMK A01 T01510087  RH  066%=      5-min Rain = 0
KNH1 210338Z 11004KT 15/09 A302 RMK A01 T01510086  RH  065%=      5-min Rain = 0
KNH1 210339Z 11004KT 15/09 A302 RMK A01 T01510086  RH  065%=      5-min Rain = 0
KNH1 210340Z 11005KT 15/09 A302 RMK A01 T01510086  RH  065%=      5-min Rain = 0
KNH1 210341Z 11005KT 15/09 A302 RMK A01 T01510086  RH  065%=      5-min Rain = 0
KNH1 210342Z 10005KT 15/09 A302 RMK A01 T01510086  RH  065%=      5-min Rain = 0
KNH1 210343Z 11004KT 15/09 A302 RMK A01 T01510086  RH  065%=      5-min Rain = 0
KNH1 210344Z 11005KT 15/09 A302 RMK A01 T01500086  RH  065%=      5-min Rain = 0
KNH1 210345Z 11005KT 15/09 A302 RMK A01 T01500086  RH  065%=      5-min Rain = 0
KNH1 210346Z 11005KT 15/09 A302 RMK A01 T01500086  RH  065%=      5-min Rain = 0
KNH1 210347Z 11004KT 15/09 A302 RMK A01 T01500085  RH  065%=      5-min Rain = 0
KNH1 210348Z 11004KT 15/09 A302 RMK A01 T01500085  RH  065%=      5-min Rain = 0
KNH1 210349Z 11005KT 15/09 A302 RMK A01 T01500086  RH  065%=      5-min Rain = 0
KNH1 210350Z 11005KT 15/09 A302 RMK A01 T01500085  RH  065%=      5-min Rain = 0
KNH1 210351Z 11005KT 15/09 A302 RMK A01 T01490085  RH  065%=      5-min Rain = 0
KNH1 210352Z 10005KT 15/09 A302 RMK A01 T01490085  RH  066%=      5-min Rain = 0
KNH1 210353Z 11005KT 15/09 A302 RMK A01 T01490085  RH  066%=      5-min Rain = 0
KNH1 210354Z 10005KT 15/09 A302 RMK A01 T01490086  RH  066%=      5-min Rain = 0
KNH1 210355Z 11005KT 15/09 A302 RMK A01 T01490086  RH  066%=      5-min Rain = 0
KNH1 210356Z 10005KT 15/09 A302 RMK A01 T01490086  RH  066%=      5-min Rain = 0
KNH1 210357Z 11005KT 15/09 A302 RMK A01 T01500086  RH  066%=      5-min Rain = 0
KNH1 210358Z 11004KT 15/09 A302 RMK A01 T01510086  RH  065%=      5-min Rain = 0
KNH1 210359Z 11005KT 15/09 A302 RMK A01 T01510086  RH  065%=      5-min Rain = 0
KNH1 210400Z 11005KT 15/09 A302 RMK A01 T01520087  RH  065%=      5-min Rain = 0
KNH1 210401Z 11005KT 15/09 A302 RMK A01 T01520087  RH  065%=      5-min Rain = 0
KNH1 210402Z 10005KT 15/09 A302 RMK A01 T01530087  RH  065%=      5-min Rain = 0
KNH1 210403Z 11005KT 15/09 A302 RMK A01 T01540087  RH  064%=      5-min Rain = 0
KNH1 210404Z 11005KT 15/09 A302 RMK A01 T01540087  RH  064%=      5-min Rain = 0
KNH1 210405Z 11006KT 15/09 A302 RMK A01 T01540087  RH  064%=      5-min Rain = 0
KNH1 210406Z 11006KT 15/09 A302 RMK A01 T01540087  RH  064%=      5-min Rain = 0
KNH1 210407Z 11006KT 15/09 A302 RMK A01 T01540087  RH  064%=      5-min Rain = 0
KNH1 210408Z 11006KT 16/09 A302 RMK A01 T01550087  RH  064%=      5-min Rain = 0
KNH1 210409Z 11005KT 16/09 A302 RMK A01 T01550087  RH  064%=      5-min Rain = 0
KNH1 210410Z 11005KT 16/09 A302 RMK A01 T01560087  RH  064%=      5-min Rain = 0
KNH1 210411Z 11005KT 16/09 A302 RMK A01 T01550087  RH  064%=      5-min Rain = 0
KNH1 210412Z 11006KT 16/09 A302 RMK A01 T01550087  RH  064%=      5-min Rain = 0
KNH1 210413Z 11006KT 16/09 A302 RMK A01 T01550087  RH  064%=      5-min Rain = 0
KNH1 210414Z 11005KT 16/09 A3021 RMK A01 T01550087  RH  064%=      5-min Rain = 0
KNH1 210415Z 11006KT 16/09 A3021 RMK A01 T01550087  RH  064%=      5-min Rain = 0
KNH1 210416Z 11006KT 15/09 A3021 RMK A01 T01540087  RH  064%=      5-min Rain = 0
KNH1 210417Z 11006KT 15/09 A3021 RMK A01 T01540087  RH  064%=      5-min Rain = 0
KNH1 210418Z 11007KT 15/09 A3021 RMK A01 T01540087  RH  064%=      5-min Rain = 0
KNH1 210419Z 11006KT 15/09 A3021 RMK A01 T01540087  RH  064%=      5-min Rain = 0
KNH1 210420Z 11006KT 15/09 A3021 RMK A01 T01540087  RH  064%=      5-min Rain = 0
KNH1 210421Z 11006KT 15/09 A3021 RMK A01 T01540087  RH  064%=      5-min Rain = 0
KNH1 210422Z 11006KT 15/09 A3021 RMK A01 T01530086  RH  064%=      5-min Rain = 0
KNH1 210423Z 11006KT 15/09 A3021 RMK A01 T01530086  RH  064%=      5-min Rain = 0
KNH1 210424Z 11006KT 15/09 A3021 RMK A01 T01540086  RH  064%=      5-min Rain = 0
KNH1 210425Z 11005KT 15/09 A3021 RMK A01 T01540086  RH  064%=      5-min Rain = 0
KNH1 210426Z 11005KT 15/09 A3021 RMK A01 T01530086  RH  064%=      5-min Rain = 0
KNH1 210427Z 11004KT 15/09 A3021 RMK A01 T01530086  RH  064%=      5-min Rain = 0
KNH1 210428Z 11006KT 15/09 A3021 RMK A01 T01520086  RH  065%=      5-min Rain = 0
KNH1 210429Z 11005KT 15/09 A3021 RMK A01 T01510086  RH  065%=      5-min Rain = 0
KNH1 210430Z 11005KT 15/09 A3021 RMK A01 T01510086  RH  065%=      5-min Rain = 0
KNH1 210431Z 11005KT 15/09 A3021 RMK A01 T01510086  RH  065%=      5-min Rain = 0
KNH1 210432Z 11006KT 15/09 A3021 RMK A01 T01500086  RH  065%=      5-min Rain = 0
KNH1 210433Z 11006KT 15/09 A3021 RMK A01 T01500086  RH  066%=      5-min Rain = 0
KNH1 210434Z 11005KT 15/09 A3021 RMK A01 T01500086  RH  066%=      5-min Rain = 0
KNH1 210435Z 10005KT 15/09 A3021 RMK A01 T01490086  RH  066%=      5-min Rain = 0
KNH1 210436Z 11005KT 15/09 A3021 RMK A01 T01490086  RH  066%=      5-min Rain = 0
KNH1 210437Z 11006KT 15/09 A3021 RMK A01 T01490086  RH  066%=      5-min Rain = 0
KNH1 210438Z 11005KT 15/09 A3021 RMK A01 T01490086  RH  066%=      5-min Rain = 0
KNH1 210439Z 11005KT 15/09 A3021 RMK A01 T01490086  RH  066%=      5-min Rain = 0
KNH1 210440Z 11004KT 15/09 A3021 RMK A01 T01490086  RH  066%=      5-min Rain = 0
KNH1 210441Z 11005KT 15/09 A3021 RMK A01 T01480086  RH  066%=      5-min Rain = 0
KNH1 210442Z 11005KT 15/09 A3021 RMK A01 T01480086  RH  066%=      5-min Rain = 0
KNH1 210443Z 11005KT 15/09 A3021 RMK A01 T01470085  RH  066%=      5-min Rain = 0
KNH1 210444Z 11005KT 15/09 A3021 RMK A01 T01460085  RH  067%=      5-min Rain = 0
KNH1 210445Z 10005KT 15/09 A3021 RMK A01 T01460085  RH  067%=      5-min Rain = 0
KNH1 210446Z 10004KT 15/09 A3021 RMK A01 T01460085  RH  067%=      5-min Rain = 0
KNH1 210447Z 11005KT 15/09 A3021 RMK A01 T01450085  RH  067%=      5-min Rain = 0
KNH1 210448Z 11005KT 15/09 A3021 RMK A01 T01450086  RH  067%=      5-min Rain = 0
KNH1 210449Z 11005KT 15/09 A3021 RMK A01 T01450086  RH  067%=      5-min Rain = 0
KNH1 210450Z 11005KT 15/09 A3021 RMK A01 T01450086  RH  067%=      5-min Rain = 0
KNH1 210451Z 11005KT 15/09 A3021 RMK A01 T01450086  RH  067%=      5-min Rain = 0
KNH1 210452Z 11004KT 15/09 A3021 RMK A01 T01450086  RH  067%=      5-min Rain = 0
KNH1 210453Z 11006KT 15/09 A3021 RMK A01 T01450086  RH  067%=      5-min Rain = 0
KNH1 210454Z 11005KT 15/09 A3021 RMK A01 T01460086  RH  067%=      5-min Rain = 0
KNH1 210455Z 11006KT 15/09 A3021 RMK A01 T01460085  RH  067%=      5-min Rain = 0
KNH1 210456Z 11006KT 15/09 A3021 RMK A01 T01460086  RH  067%=      5-min Rain = 0
KNH1 210457Z 11006KT 15/09 A3021 RMK A01 T01460086  RH  067%=      5-min Rain = 0
KNH1 210458Z 11006KT 15/09 A3021 RMK A01 T01460086  RH  067%=      5-min Rain = 0
KNH1 210459Z 11006KT 15/09 A3021 RMK A01 T01470086  RH  067%=      5-min Rain = 0

Page generated in 0.071 seconds.